GEFSGL_prec_meanprecacc_198.txt.gz
Total_Precipitation_Accumulation
1.32 1.35 1.28 1.24 1.22 1.20 1.13 1.02 0.97 0.91 0.85 0.85 0.81 0.79 0.81 0.85 0.87 0.90 0.89 0.87 0.82 0.78 0.76 0.76 0.79 0.80 0.84 0.87 0.91 1.04 1.22 1.34 1.41 1.19 1.05 1.12 1.22 1.19 1.22 1.15 1.03 0.97 1.08
1.08 1.13 1.11 1.02 0.93 0.91 0.92 0.89 0.83 0.80 0.78 0.78 0.72 0.67 0.63 0.61 0.63 0.65 0.66 0.71 0.73 0.70 0.71 0.74 0.74 0.74 0.74 0.80 0.86 0.94 1.09 1.26 1.43 1.38 1.18 1.18 1.23 1.22 1.27 1.26 1.10 0.94 0.99
0.86 0.86 0.84 0.81 0.75 0.73 0.74 0.74 0.71 0.70 0.69 0.65 0.62 0.60 0.53 0.52 0.49 0.48 0.51 0.57 0.60 0.60 0.64 0.69 0.73 0.83 0.82 0.82 0.87 0.90 0.99 1.12 1.34 1.43 1.32 1.28 1.33 1.36 1.45 1.37 1.20 1.13 0.94
0.75 0.76 0.75 0.76 0.73 0.66 0.62 0.61 0.62 0.63 0.65 0.65 0.63 0.53 0.44 0.40 0.39 0.38 0.39 0.43 0.45 0.49 0.56 0.62 0.68 0.80 0.86 0.89 0.88 0.90 0.94 1.06 1.23 1.40 1.41 1.39 1.43 1.50 1.53 1.50 1.33 1.17 1.03
0.74 0.73 0.77 0.80 0.78 0.74 0.70 0.67 0.65 0.62 0.59 0.59 0.60 0.57 0.49 0.40 0.35 0.35 0.35 0.39 0.46 0.52 0.55 0.57 0.60 0.70 0.79 0.78 0.73 0.76 0.89 1.09 1.19 1.35 1.41 1.38 1.35 1.47 1.48 1.30 1.22 1.13 1.00
0.85 0.84 0.84 0.83 0.77 0.74 0.70 0.69 0.69 0.65 0.62 0.57 0.56 0.56 0.52 0.40 0.39 0.39 0.35 0.40 0.48 0.55 0.57 0.58 0.55 0.56 0.56 0.57 0.64 0.71 0.81 1.04 1.35 1.54 1.49 1.40 1.26 1.24 1.26 1.23 1.25 1.24 1.18
1.01 0.95 0.89 0.80 0.74 0.69 0.64 0.65 0.68 0.65 0.59 0.55 0.52 0.54 0.52 0.44 0.40 0.37 0.37 0.42 0.52 0.59 0.62 0.61 0.50 0.44 0.52 0.58 0.63 0.68 0.81 0.97 1.24 1.56 1.64 1.42 1.33 1.27 1.30 1.30 1.34 1.39 1.29
1.00 0.92 0.83 0.73 0.69 0.70 0.71 0.70 0.66 0.61 0.58 0.58 0.57 0.56 0.53 0.43 0.39 0.38 0.38 0.42 0.53 0.55 0.56 0.59 0.60 0.58 0.55 0.57 0.63 0.75 0.90 1.03 1.12 1.21 1.50 1.33 1.11 1.09 1.17 1.21 1.29 1.32 1.24
0.96 0.82 0.72 0.65 0.62 0.62 0.63 0.61 0.59 0.59 0.57 0.54 0.51 0.51 0.54 0.51 0.45 0.39 0.36 0.44 0.51 0.53 0.50 0.49 0.48 0.51 0.54 0.65 0.80 1.03 1.17 1.29 1.23 1.36 1.52 1.46 1.30 1.20 1.08 1.11 1.30 1.36 1.31
0.73 0.63 0.61 0.59 0.54 0.49 0.50 0.52 0.52 0.54 0.52 0.47 0.44 0.47 0.50 0.47 0.37 0.32 0.33 0.40 0.47 0.52 0.54 0.54 0.48 0.44 0.55 0.71 0.96 1.24 1.38 1.45 1.32 1.42 1.65 1.69 1.51 1.47 1.42 1.29 1.36 1.37 1.33
0.61 0.55 0.56 0.51 0.42 0.39 0.43 0.49 0.48 0.44 0.44 0.43 0.43 0.42 0.39 0.32 0.28 0.25 0.25 0.29 0.37 0.47 0.55 0.62 0.60 0.53 0.60 0.80 1.01 1.20 1.36 1.39 1.42 1.48 1.50 1.52 1.58 1.58 1.51 1.41 1.34 1.29 1.25
0.55 0.54 0.55 0.50 0.34 0.31 0.39 0.42 0.41 0.43 0.42 0.39 0.38 0.35 0.30 0.28 0.22 0.19 0.20 0.20 0.22 0.39 0.56 0.59 0.61 0.58 0.64 0.85 1.02 1.26 1.46 1.54 1.52 1.53 1.37 1.29 1.24 1.25 1.27 1.20 1.12 1.05 1.01
0.53 0.55 0.52 0.47 0.37 0.30 0.33 0.36 0.38 0.40 0.35 0.29 0.29 0.31 0.27 0.28 0.22 0.14 0.14 0.15 0.17 0.28 0.42 0.48 0.54 0.58 0.75 1.05 1.22 1.39 1.55 1.65 1.66 1.51 1.32 1.21 1.06 0.97 0.96 1.00 0.98 0.93 0.85
0.55 0.53 0.52 0.48 0.40 0.32 0.30 0.26 0.28 0.30 0.30 0.28 0.28 0.31 0.29 0.28 0.21 0.17 0.19 0.20 0.21 0.27 0.41 0.53 0.64 0.72 0.91 1.22 1.42 1.60 1.65 1.55 1.38 1.30 1.21 1.13 0.97 0.88 0.87 0.81 0.80 0.82 0.84
0.49 0.43 0.40 0.36 0.35 0.34 0.28 0.18 0.18 0.19 0.19 0.22 0.23 0.22 0.23 0.21 0.14 0.15 0.18 0.19 0.21 0.24 0.37 0.57 0.74 0.88 1.09 1.31 1.48 1.53 1.49 1.39 1.27 1.09 1.01 1.04 1.01 0.92 0.85 0.73 0.69 0.71 0.79
0.46 0.40 0.33 0.29 0.29 0.27 0.30 0.24 0.15 0.13 0.13 0.12 0.12 0.12 0.12 0.12 0.11 0.13 0.16 0.18 0.22 0.28 0.39 0.59 0.73 0.84 1.03 1.26 1.39 1.35 1.24 1.17 1.08 0.96 0.89 0.86 0.86 0.83 0.78 0.69 0.60 0.61 0.70
0.40 0.36 0.28 0.24 0.25 0.24 0.28 0.33 0.30 0.19 0.12 0.11 0.11 0.10 0.10 0.11 0.11 0.13 0.15 0.20 0.23 0.29 0.40 0.59 0.71 0.81 1.00 1.15 1.20 1.18 1.14 1.05 0.95 0.89 0.84 0.76 0.70 0.67 0.61 0.55 0.52 0.55 0.56
0.22 0.20 0.19 0.21 0.21 0.22 0.22 0.23 0.24 0.26 0.27 0.24 0.15 0.10 0.09 0.11 0.12 0.13 0.16 0.21 0.26 0.31 0.45 0.61 0.73 0.79 0.88 0.94 1.01 1.06 1.06 0.97 0.87 0.82 0.82 0.76 0.68 0.61 0.54 0.50 0.49 0.45 0.45
0.15 0.16 0.16 0.17 0.18 0.17 0.16 0.16 0.17 0.19 0.22 0.23 0.20 0.14 0.12 0.13 0.16 0.19 0.22 0.27 0.34 0.41 0.50 0.62 0.69 0.75 0.77 0.77 0.82 0.87 0.90 0.87 0.80 0.76 0.75 0.72 0.66 0.58 0.49 0.42 0.38 0.28 0.32
0.12 0.09 0.09 0.10 0.10 0.11 0.11 0.12 0.13 0.15 0.18 0.21 0.22 0.20 0.19 0.26 0.31 0.33 0.30 0.28 0.33 0.41 0.50 0.57 0.62 0.67 0.64 0.64 0.66 0.69 0.73 0.73 0.69 0.67 0.65 0.63 0.56 0.47 0.42 0.37 0.33 0.31 0.32
0.07 0.05 0.04 0.05 0.06 0.06 0.06 0.07 0.09 0.11 0.16 0.21 0.21 0.18 0.24 0.31 0.37 0.38 0.38 0.37 0.39 0.43 0.47 0.49 0.51 0.54 0.53 0.52 0.52 0.54 0.57 0.61 0.62 0.63 0.61 0.56 0.48 0.41 0.36 0.31 0.26 0.24 0.23
0.04 0.04 0.04 0.05 0.04 0.03 0.03 0.04 0.07 0.10 0.13 0.17 0.19 0.19 0.27 0.31 0.36 0.40 0.43 0.45 0.45 0.45 0.43 0.43 0.43 0.44 0.44 0.44 0.42 0.43 0.46 0.49 0.55 0.60 0.61 0.55 0.45 0.37 0.31 0.26 0.23 0.22 0.22
0.03 0.03 0.04 0.04 0.02 0.01 0.02 0.04 0.06 0.08 0.10 0.13 0.15 0.20 0.26 0.34 0.40 0.44 0.45 0.45 0.45 0.43 0.38 0.36 0.37 0.39 0.39 0.36 0.36 0.39 0.43 0.46 0.52 0.59 0.63 0.57 0.45 0.37 0.30 0.27 0.25 0.25 0.22
0.02 0.02 0.03 0.03 0.02 0.02 0.02 0.03 0.05 0.06 0.08 0.11 0.14 0.18 0.23 0.31 0.39 0.46 0.49 0.47 0.46 0.44 0.41 0.39 0.38 0.37 0.34 0.30 0.29 0.28 0.30 0.36 0.44 0.52 0.55 0.54 0.43 0.33 0.26 0.24 0.23 0.22 0.23
0.02 0.02 0.02 0.02 0.02 0.02 0.03 0.03 0.04 0.06 0.06 0.08 0.10 0.13 0.17 0.22 0.28 0.36 0.44 0.48 0.50 0.50 0.47 0.44 0.43 0.41 0.35 0.28 0.23 0.20 0.26 0.33 0.40 0.45 0.48 0.45 0.35 0.29 0.26 0.24 0.21 0.19 0.20
0.02 0.01 0.01 0.01 0.01 0.02 0.02 0.03 0.04 0.04 0.05 0.06 0.08 0.09 0.11 0.14 0.19 0.24 0.31 0.37 0.43 0.49 0.53 0.55 0.52 0.41 0.33 0.27 0.24 0.25 0.27 0.27 0.29 0.33 0.36 0.36 0.29 0.26 0.26 0.24 0.18 0.17 0.19

GEFSGL_prec_meanprecacc_204.txt.gz
Total_Precipitation_Accumulation
1.40 1.42 1.35 1.31 1.30 1.28 1.18 1.06 1.00 0.95 0.90 0.89 0.84 0.81 0.83 0.87 0.89 0.92 0.91 0.90 0.85 0.81 0.78 0.79 0.82 0.82 0.87 0.89 0.94 1.07 1.25 1.38 1.44 1.22 1.09 1.17 1.29 1.25 1.28 1.22 1.11 1.04 1.12
1.14 1.19 1.18 1.10 1.01 0.99 0.97 0.93 0.86 0.83 0.81 0.81 0.75 0.69 0.64 0.63 0.65 0.67 0.68 0.72 0.74 0.71 0.73 0.76 0.77 0.77 0.78 0.84 0.90 0.97 1.12 1.29 1.45 1.42 1.22 1.22 1.28 1.29 1.35 1.35 1.17 1.00 1.03
0.91 0.91 0.90 0.89 0.84 0.81 0.80 0.80 0.77 0.75 0.73 0.68 0.64 0.61 0.54 0.52 0.50 0.49 0.52 0.58 0.61 0.61 0.65 0.70 0.74 0.85 0.85 0.85 0.91 0.93 1.02 1.14 1.37 1.47 1.36 1.33 1.40 1.44 1.55 1.46 1.27 1.21 1.00
0.80 0.80 0.79 0.82 0.81 0.74 0.67 0.64 0.66 0.69 0.70 0.68 0.66 0.54 0.45 0.40 0.39 0.39 0.40 0.44 0.46 0.50 0.57 0.63 0.69 0.81 0.87 0.91 0.92 0.93 0.98 1.10 1.27 1.44 1.44 1.43 1.49 1.57 1.60 1.58 1.42 1.25 1.09
0.78 0.76 0.80 0.85 0.86 0.82 0.75 0.69 0.67 0.66 0.64 0.63 0.63 0.59 0.50 0.41 0.36 0.35 0.36 0.40 0.47 0.53 0.56 0.58 0.62 0.72 0.81 0.80 0.75 0.79 0.92 1.13 1.22 1.39 1.46 1.44 1.44 1.54 1.54 1.37 1.30 1.20 1.06
0.88 0.87 0.88 0.87 0.83 0.79 0.74 0.70 0.70 0.67 0.64 0.60 0.59 0.57 0.53 0.40 0.39 0.39 0.36 0.42 0.50 0.56 0.59 0.59 0.57 0.58 0.58 0.60 0.66 0.72 0.82 1.07 1.38 1.57 1.53 1.46 1.34 1.31 1.33 1.29 1.29 1.28 1.23
1.03 0.98 0.92 0.84 0.77 0.72 0.65 0.66 0.69 0.66 0.61 0.56 0.53 0.55 0.53 0.45 0.41 0.38 0.38 0.44 0.54 0.60 0.63 0.63 0.52 0.45 0.54 0.60 0.64 0.69 0.82 0.98 1.26 1.58 1.66 1.45 1.36 1.31 1.34 1.34 1.38 1.43 1.33
1.02 0.94 0.86 0.76 0.72 0.72 0.72 0.71 0.68 0.63 0.59 0.59 0.58 0.58 0.55 0.45 0.41 0.40 0.40 0.46 0.56 0.58 0.59 0.61 0.62 0.60 0.56 0.59 0.66 0.76 0.91 1.03 1.13 1.23 1.52 1.36 1.14 1.13 1.20 1.24 1.32 1.36 1.28
0.98 0.83 0.73 0.67 0.64 0.63 0.64 0.63 0.60 0.60 0.58 0.54 0.51 0.53 0.56 0.53 0.47 0.41 0.38 0.46 0.53 0.54 0.52 0.50 0.50 0.52 0.56 0.66 0.81 1.04 1.18 1.30 1.24 1.37 1.53 1.48 1.31 1.21 1.10 1.14 1.34 1.39 1.35
0.74 0.64 0.62 0.62 0.55 0.51 0.51 0.53 0.53 0.55 0.53 0.48 0.45 0.48 0.52 0.50 0.39 0.34 0.34 0.41 0.48 0.53 0.56 0.56 0.49 0.46 0.57 0.73 0.97 1.26 1.39 1.47 1.33 1.43 1.67 1.71 1.54 1.49 1.44 1.31 1.40 1.42 1.38
0.62 0.56 0.58 0.54 0.44 0.40 0.44 0.50 0.49 0.45 0.45 0.45 0.45 0.44 0.42 0.35 0.31 0.28 0.28 0.31 0.38 0.48 0.56 0.63 0.62 0.55 0.62 0.82 1.03 1.21 1.37 1.40 1.44 1.50 1.52 1.55 1.61 1.62 1.55 1.46 1.39 1.35 1.32
0.56 0.54 0.56 0.53 0.36 0.32 0.41 0.44 0.43 0.45 0.45 0.42 0.41 0.39 0.34 0.32 0.26 0.23 0.23 0.23 0.25 0.40 0.57 0.61 0.64 0.61 0.66 0.87 1.04 1.27 1.47 1.55 1.53 1.55 1.40 1.32 1.28 1.29 1.32 1.26 1.19 1.13 1.09
0.54 0.57 0.55 0.51 0.40 0.32 0.35 0.38 0.40 0.43 0.39 0.33 0.33 0.34 0.29 0.29 0.24 0.16 0.16 0.17 0.19 0.30 0.44 0.51 0.57 0.61 0.77 1.07 1.24 1.41 1.57 1.66 1.68 1.54 1.34 1.24 1.10 1.01 1.00 1.05 1.04 1.01 0.95
0.57 0.56 0.55 0.50 0.42 0.34 0.32 0.28 0.30 0.33 0.32 0.30 0.31 0.34 0.32 0.30 0.23 0.19 0.21 0.22 0.22 0.29 0.43 0.56 0.67 0.75 0.94 1.25 1.45 1.63 1.68 1.58 1.41 1.33 1.23 1.16 1.00 0.93 0.92 0.85 0.85 0.88 0.91
0.50 0.46 0.43 0.38 0.37 0.35 0.29 0.20 0.19 0.20 0.20 0.24 0.29 0.28 0.27 0.24 0.16 0.17 0.19 0.19 0.22 0.25 0.38 0.58 0.76 0.91 1.12 1.34 1.50 1.56 1.53 1.42 1.31 1.12 1.04 1.07 1.04 0.95 0.89 0.78 0.73 0.75 0.84
0.47 0.42 0.36 0.31 0.30 0.28 0.32 0.25 0.16 0.14 0.14 0.13 0.15 0.15 0.15 0.15 0.13 0.16 0.19 0.21 0.24 0.30 0.41 0.62 0.75 0.86 1.05 1.27 1.41 1.38 1.27 1.20 1.11 0.99 0.93 0.90 0.89 0.86 0.82 0.72 0.64 0.66 0.75
0.40 0.37 0.30 0.26 0.27 0.25 0.29 0.34 0.32 0.20 0.13 0.12 0.12 0.13 0.13 0.14 0.14 0.16 0.20 0.24 0.26 0.32 0.43 0.61 0.73 0.83 1.01 1.16 1.21 1.20 1.16 1.07 0.98 0.92 0.87 0.79 0.73 0.70 0.65 0.59 0.56 0.60 0.60
0.23 0.20 0.20 0.23 0.23 0.24 0.24 0.24 0.25 0.27 0.28 0.25 0.18 0.14 0.12 0.12 0.13 0.15 0.20 0.24 0.29 0.33 0.47 0.63 0.75 0.81 0.89 0.95 1.02 1.08 1.08 0.99 0.90 0.86 0.86 0.80 0.71 0.64 0.57 0.53 0.52 0.49 0.49
0.16 0.17 0.17 0.18 0.20 0.20 0.18 0.18 0.19 0.23 0.25 0.26 0.22 0.17 0.13 0.14 0.16 0.20 0.24 0.28 0.36 0.43 0.52 0.63 0.70 0.76 0.78 0.79 0.83 0.89 0.91 0.89 0.82 0.78 0.78 0.76 0.70 0.62 0.52 0.44 0.40 0.30 0.34
0.12 0.09 0.10 0.11 0.12 0.13 0.12 0.14 0.14 0.16 0.20 0.23 0.23 0.20 0.19 0.26 0.31 0.33 0.31 0.29 0.34 0.42 0.51 0.58 0.63 0.68 0.66 0.65 0.67 0.70 0.73 0.74 0.71 0.68 0.67 0.66 0.60 0.51 0.46 0.40 0.36 0.34 0.34
0.08 0.05 0.05 0.06 0.07 0.08 0.07 0.07 0.09 0.11 0.17 0.22 0.21 0.19 0.26 0.32 0.38 0.39 0.38 0.37 0.40 0.44 0.48 0.50 0.52 0.54 0.53 0.53 0.52 0.54 0.58 0.61 0.62 0.64 0.62 0.57 0.49 0.44 0.38 0.34 0.29 0.26 0.25
0.05 0.04 0.05 0.05 0.05 0.04 0.04 0.05 0.07 0.10 0.13 0.17 0.20 0.20 0.28 0.32 0.36 0.40 0.44 0.45 0.45 0.46 0.44 0.43 0.43 0.44 0.45 0.44 0.43 0.44 0.47 0.50 0.56 0.60 0.61 0.56 0.46 0.38 0.32 0.28 0.25 0.24 0.24
0.03 0.03 0.04 0.04 0.03 0.02 0.02 0.04 0.07 0.09 0.11 0.13 0.15 0.20 0.27 0.34 0.40 0.44 0.45 0.46 0.45 0.43 0.39 0.37 0.38 0.40 0.39 0.36 0.36 0.40 0.43 0.47 0.52 0.60 0.64 0.58 0.46 0.38 0.31 0.28 0.27 0.27 0.24
0.02 0.02 0.03 0.04 0.02 0.02 0.02 0.03 0.05 0.06 0.08 0.11 0.14 0.19 0.24 0.32 0.39 0.46 0.50 0.48 0.47 0.45 0.42 0.39 0.38 0.38 0.34 0.30 0.29 0.29 0.30 0.36 0.44 0.52 0.55 0.54 0.43 0.33 0.27 0.25 0.24 0.23 0.24
0.02 0.03 0.03 0.03 0.02 0.02 0.03 0.04 0.05 0.06 0.07 0.08 0.11 0.13 0.17 0.22 0.29 0.37 0.45 0.49 0.51 0.51 0.47 0.44 0.44 0.41 0.35 0.28 0.23 0.20 0.26 0.34 0.41 0.45 0.49 0.46 0.36 0.30 0.26 0.25 0.22 0.21 0.22
0.02 0.02 0.02 0.02 0.02 0.02 0.02 0.03 0.04 0.05 0.06 0.06 0.08 0.10 0.12 0.15 0.20 0.25 0.32 0.39 0.44 0.50 0.54 0.56 0.52 0.42 0.33 0.27 0.24 0.25 0.27 0.27 0.30 0.33 0.37 0.37 0.29 0.27 0.27 0.25 0.19 0.19 0.20

GEFSGL_prec_meanprecacc_210.txt.gz
Total_Precipitation_Accumulation
1.42 1.46 1.38 1.36 1.36 1.36 1.29 1.17 1.12 1.04 0.97 0.95 0.90 0.86 0.86 0.89 0.90 0.94 0.93 0.91 0.86 0.82 0.81 0.82 0.86 0.89 0.94 0.96 1.00 1.14 1.34 1.47 1.50 1.26 1.13 1.21 1.33 1.29 1.33 1.29 1.19 1.14 1.22
1.16 1.21 1.21 1.14 1.06 1.05 1.05 1.00 0.93 0.90 0.87 0.86 0.80 0.72 0.67 0.66 0.67 0.69 0.70 0.74 0.76 0.73 0.76 0.80 0.81 0.82 0.83 0.90 0.96 1.03 1.18 1.36 1.51 1.46 1.26 1.28 1.33 1.34 1.39 1.40 1.24 1.09 1.14
0.93 0.93 0.94 0.94 0.89 0.87 0.88 0.89 0.84 0.81 0.79 0.74 0.71 0.68 0.59 0.56 0.54 0.53 0.55 0.61 0.64 0.64 0.69 0.74 0.78 0.89 0.88 0.89 0.95 0.97 1.07 1.19 1.43 1.52 1.40 1.38 1.45 1.48 1.59 1.50 1.34 1.29 1.08
0.82 0.83 0.82 0.86 0.88 0.83 0.77 0.74 0.73 0.74 0.74 0.73 0.72 0.62 0.52 0.45 0.44 0.43 0.44 0.47 0.49 0.53 0.61 0.67 0.71 0.83 0.90 0.95 0.95 0.97 1.01 1.14 1.32 1.49 1.49 1.47 1.54 1.61 1.64 1.62 1.48 1.32 1.19
0.81 0.79 0.83 0.88 0.91 0.88 0.84 0.78 0.73 0.70 0.67 0.68 0.69 0.64 0.55 0.45 0.38 0.37 0.38 0.42 0.50 0.55 0.58 0.60 0.64 0.74 0.82 0.82 0.77 0.81 0.96 1.16 1.27 1.44 1.50 1.48 1.49 1.60 1.59 1.42 1.35 1.27 1.14
0.91 0.89 0.90 0.90 0.86 0.84 0.80 0.76 0.73 0.69 0.66 0.63 0.63 0.61 0.55 0.42 0.40 0.40 0.38 0.44 0.51 0.57 0.60 0.61 0.59 0.60 0.59 0.62 0.68 0.73 0.84 1.09 1.42 1.62 1.58 1.51 1.39 1.37 1.40 1.35 1.37 1.36 1.31
1.05 0.99 0.94 0.88 0.79 0.74 0.68 0.69 0.71 0.68 0.63 0.59 0.56 0.59 0.56 0.47 0.43 0.40 0.40 0.46 0.56 0.62 0.65 0.65 0.54 0.47 0.56 0.63 0.68 0.72 0.84 1.00 1.29 1.62 1.71 1.50 1.42 1.37 1.40 1.39 1.44 1.50 1.39
1.05 0.97 0.89 0.81 0.75 0.74 0.73 0.73 0.70 0.66 0.60 0.60 0.60 0.61 0.60 0.48 0.44 0.42 0.41 0.47 0.58 0.60 0.61 0.65 0.67 0.64 0.60 0.64 0.70 0.79 0.94 1.07 1.17 1.27 1.57 1.41 1.19 1.18 1.25 1.29 1.37 1.40 1.32
1.01 0.86 0.76 0.71 0.67 0.65 0.66 0.66 0.64 0.62 0.60 0.57 0.55 0.56 0.60 0.57 0.50 0.43 0.40 0.48 0.56 0.57 0.55 0.55 0.55 0.58 0.62 0.71 0.85 1.07 1.21 1.33 1.27 1.40 1.56 1.50 1.34 1.23 1.13 1.18 1.39 1.44 1.40
0.77 0.67 0.65 0.65 0.59 0.55 0.54 0.56 0.57 0.58 0.57 0.52 0.50 0.52 0.56 0.55 0.42 0.36 0.36 0.43 0.51 0.56 0.60 0.60 0.53 0.50 0.61 0.76 1.00 1.29 1.43 1.49 1.36 1.46 1.70 1.74 1.56 1.51 1.46 1.35 1.46 1.50 1.46
0.65 0.58 0.61 0.57 0.48 0.44 0.48 0.54 0.52 0.49 0.50 0.50 0.49 0.48 0.45 0.38 0.33 0.29 0.29 0.33 0.41 0.51 0.58 0.66 0.64 0.57 0.63 0.84 1.05 1.23 1.39 1.42 1.46 1.52 1.55 1.59 1.65 1.66 1.61 1.53 1.48 1.46 1.42
0.59 0.57 0.59 0.56 0.39 0.35 0.44 0.47 0.46 0.50 0.49 0.45 0.44 0.42 0.36 0.34 0.27 0.23 0.23 0.23 0.25 0.41 0.58 0.63 0.65 0.62 0.67 0.88 1.05 1.29 1.49 1.57 1.55 1.57 1.43 1.36 1.32 1.33 1.38 1.34 1.28 1.22 1.19
0.56 0.60 0.58 0.53 0.42 0.34 0.38 0.41 0.43 0.46 0.42 0.35 0.35 0.36 0.30 0.30 0.25 0.17 0.16 0.17 0.19 0.30 0.45 0.52 0.58 0.63 0.78 1.09 1.26 1.42 1.59 1.69 1.71 1.57 1.38 1.28 1.14 1.06 1.05 1.10 1.10 1.08 1.02
0.59 0.59 0.57 0.52 0.43 0.36 0.34 0.31 0.33 0.35 0.34 0.31 0.33 0.35 0.33 0.30 0.24 0.20 0.21 0.22 0.23 0.29 0.43 0.56 0.68 0.76 0.96 1.27 1.48 1.66 1.71 1.62 1.45 1.37 1.28 1.20 1.05 0.98 0.98 0.91 0.91 0.95 0.98
0.53 0.49 0.46 0.40 0.39 0.38 0.31 0.21 0.21 0.22 0.21 0.25 0.30 0.29 0.28 0.26 0.17 0.18 0.20 0.20 0.22 0.26 0.38 0.59 0.77 0.92 1.14 1.36 1.54 1.60 1.58 1.47 1.35 1.16 1.08 1.11 1.09 1.00 0.94 0.83 0.80 0.83 0.92
0.49 0.46 0.40 0.35 0.34 0.31 0.33 0.26 0.17 0.15 0.14 0.13 0.16 0.16 0.16 0.17 0.15 0.16 0.19 0.21 0.24 0.31 0.41 0.62 0.76 0.87 1.07 1.30 1.44 1.41 1.30 1.23 1.14 1.02 0.96 0.93 0.93 0.90 0.85 0.77 0.70 0.71 0.80
0.42 0.39 0.34 0.30 0.30 0.30 0.33 0.36 0.33 0.21 0.14 0.13 0.13 0.14 0.15 0.16 0.15 0.17 0.20 0.25 0.27 0.34 0.44 0.63 0.75 0.85 1.03 1.18 1.23 1.22 1.17 1.08 0.99 0.94 0.90 0.82 0.76 0.74 0.68 0.63 0.61 0.64 0.63
0.25 0.23 0.22 0.25 0.26 0.27 0.27 0.27 0.29 0.30 0.30 0.27 0.19 0.16 0.14 0.14 0.15 0.16 0.20 0.25 0.30 0.34 0.48 0.65 0.76 0.83 0.91 0.97 1.04 1.09 1.09 1.00 0.91 0.87 0.87 0.81 0.73 0.66 0.60 0.56 0.55 0.53 0.52
0.18 0.20 0.19 0.21 0.23 0.23 0.21 0.21 0.22 0.26 0.28 0.29 0.26 0.20 0.16 0.16 0.18 0.22 0.25 0.29 0.36 0.44 0.53 0.64 0.72 0.78 0.80 0.81 0.85 0.91 0.92 0.90 0.83 0.80 0.79 0.77 0.71 0.63 0.54 0.47 0.43 0.34 0.38
0.14 0.11 0.12 0.14 0.16 0.16 0.15 0.16 0.16 0.19 0.23 0.27 0.27 0.23 0.21 0.27 0.32 0.35 0.32 0.30 0.35 0.44 0.52 0.59 0.65 0.69 0.68 0.67 0.68 0.72 0.75 0.75 0.72 0.69 0.68 0.67 0.60 0.52 0.47 0.42 0.39 0.37 0.38
0.10 0.07 0.07 0.08 0.09 0.10 0.08 0.09 0.11 0.14 0.20 0.24 0.23 0.20 0.27 0.33 0.39 0.40 0.39 0.38 0.41 0.45 0.48 0.51 0.53 0.55 0.54 0.54 0.54 0.55 0.59 0.62 0.63 0.65 0.63 0.58 0.50 0.44 0.39 0.35 0.31 0.28 0.28
0.06 0.06 0.06 0.06 0.06 0.05 0.05 0.06 0.09 0.13 0.15 0.18 0.20 0.21 0.29 0.32 0.37 0.40 0.44 0.46 0.46 0.46 0.44 0.44 0.44 0.45 0.46 0.45 0.44 0.45 0.48 0.51 0.57 0.61 0.62 0.57 0.47 0.39 0.33 0.29 0.28 0.27 0.26
0.05 0.05 0.06 0.06 0.04 0.04 0.04 0.06 0.09 0.10 0.12 0.14 0.16 0.21 0.27 0.35 0.41 0.45 0.46 0.46 0.46 0.44 0.40 0.38 0.39 0.41 0.40 0.37 0.37 0.41 0.44 0.48 0.53 0.60 0.64 0.59 0.47 0.39 0.32 0.29 0.29 0.30 0.27
0.03 0.04 0.06 0.06 0.04 0.04 0.04 0.05 0.05 0.07 0.09 0.11 0.14 0.19 0.24 0.32 0.40 0.47 0.50 0.48 0.47 0.45 0.42 0.40 0.39 0.38 0.35 0.31 0.30 0.29 0.31 0.36 0.45 0.53 0.56 0.55 0.44 0.35 0.28 0.27 0.27 0.27 0.27
0.03 0.04 0.04 0.04 0.04 0.04 0.04 0.04 0.05 0.06 0.07 0.08 0.11 0.14 0.17 0.22 0.29 0.38 0.46 0.50 0.52 0.52 0.48 0.45 0.44 0.42 0.36 0.29 0.24 0.21 0.27 0.34 0.41 0.46 0.49 0.46 0.37 0.30 0.27 0.26 0.25 0.24 0.24
0.03 0.03 0.02 0.02 0.02 0.02 0.03 0.04 0.04 0.05 0.06 0.06 0.08 0.10 0.12 0.15 0.20 0.25 0.32 0.39 0.44 0.51 0.55 0.57 0.54 0.43 0.35 0.28 0.25 0.26 0.28 0.28 0.31 0.34 0.38 0.37 0.30 0.28 0.28 0.26 0.21 0.20 0.22

GEFSGL_prec_meanprecacc_216.txt.gz
Total_Precipitation_Accumulation
1.47 1.50 1.43 1.40 1.39 1.39 1.33 1.22 1.20 1.14 1.05 1.01 0.94 0.90 0.92 0.96 0.95 0.97 0.96 0.93 0.88 0.84 0.83 0.84 0.88 0.91 0.97 0.98 1.02 1.17 1.37 1.52 1.56 1.30 1.15 1.22 1.35 1.31 1.35 1.30 1.21 1.16 1.24
1.18 1.24 1.25 1.18 1.08 1.08 1.07 1.03 0.99 0.98 0.94 0.93 0.86 0.77 0.73 0.73 0.73 0.73 0.74 0.77 0.78 0.75 0.78 0.82 0.83 0.85 0.85 0.91 0.98 1.05 1.20 1.38 1.54 1.48 1.28 1.29 1.36 1.37 1.42 1.42 1.26 1.11 1.17
0.94 0.95 0.97 0.97 0.91 0.89 0.91 0.91 0.88 0.87 0.84 0.78 0.76 0.73 0.64 0.62 0.59 0.57 0.59 0.65 0.67 0.67 0.71 0.77 0.81 0.91 0.90 0.91 0.97 0.99 1.08 1.20 1.45 1.53 1.41 1.39 1.46 1.51 1.62 1.52 1.36 1.31 1.10
0.83 0.84 0.84 0.88 0.90 0.86 0.79 0.77 0.77 0.78 0.78 0.76 0.75 0.66 0.57 0.51 0.49 0.48 0.49 0.53 0.55 0.59 0.67 0.73 0.76 0.87 0.94 0.98 0.98 0.99 1.03 1.16 1.33 1.51 1.50 1.49 1.55 1.63 1.68 1.65 1.50 1.35 1.22
0.82 0.80 0.84 0.90 0.92 0.90 0.86 0.81 0.76 0.73 0.70 0.71 0.72 0.66 0.58 0.49 0.43 0.44 0.45 0.49 0.57 0.62 0.64 0.65 0.68 0.78 0.86 0.85 0.80 0.83 0.98 1.19 1.29 1.46 1.53 1.51 1.51 1.62 1.61 1.44 1.38 1.31 1.18
0.93 0.90 0.91 0.91 0.87 0.86 0.83 0.80 0.79 0.74 0.71 0.67 0.66 0.64 0.59 0.47 0.47 0.47 0.45 0.50 0.57 0.61 0.62 0.63 0.61 0.61 0.62 0.64 0.70 0.75 0.86 1.11 1.44 1.64 1.61 1.54 1.42 1.40 1.43 1.38 1.40 1.42 1.36
1.07 1.01 0.95 0.89 0.80 0.76 0.71 0.70 0.74 0.73 0.68 0.62 0.60 0.63 0.61 0.52 0.49 0.45 0.45 0.50 0.59 0.64 0.67 0.67 0.56 0.49 0.58 0.64 0.69 0.74 0.87 1.03 1.31 1.65 1.73 1.52 1.44 1.40 1.43 1.43 1.48 1.55 1.43
1.07 0.98 0.90 0.82 0.76 0.76 0.75 0.74 0.72 0.69 0.64 0.64 0.64 0.65 0.64 0.52 0.47 0.45 0.44 0.50 0.60 0.61 0.62 0.66 0.68 0.64 0.61 0.65 0.71 0.81 0.95 1.09 1.19 1.29 1.59 1.42 1.20 1.20 1.28 1.33 1.42 1.46 1.37
1.05 0.88 0.79 0.73 0.69 0.68 0.68 0.68 0.66 0.65 0.63 0.60 0.58 0.60 0.64 0.60 0.52 0.45 0.41 0.49 0.56 0.57 0.55 0.55 0.56 0.58 0.63 0.72 0.87 1.09 1.22 1.34 1.28 1.41 1.57 1.52 1.36 1.26 1.16 1.22 1.42 1.48 1.44
0.82 0.71 0.69 0.69 0.64 0.58 0.58 0.59 0.60 0.62 0.61 0.57 0.53 0.55 0.59 0.57 0.44 0.36 0.36 0.43 0.51 0.56 0.60 0.60 0.54 0.51 0.62 0.77 1.01 1.30 1.44 1.51 1.38 1.48 1.72 1.77 1.59 1.55 1.50 1.39 1.50 1.54 1.49
0.68 0.62 0.65 0.62 0.53 0.49 0.53 0.57 0.56 0.53 0.54 0.52 0.51 0.50 0.47 0.39 0.33 0.29 0.29 0.33 0.41 0.51 0.58 0.66 0.65 0.57 0.64 0.84 1.06 1.25 1.40 1.44 1.47 1.54 1.57 1.61 1.67 1.69 1.64 1.56 1.52 1.51 1.49
0.63 0.61 0.63 0.60 0.42 0.37 0.46 0.49 0.48 0.51 0.50 0.47 0.46 0.43 0.37 0.35 0.27 0.23 0.23 0.23 0.25 0.41 0.59 0.63 0.66 0.63 0.67 0.89 1.06 1.30 1.51 1.58 1.56 1.58 1.45 1.38 1.34 1.35 1.41 1.37 1.31 1.27 1.24
0.59 0.61 0.60 0.54 0.43 0.35 0.39 0.43 0.44 0.47 0.44 0.37 0.36 0.37 0.31 0.31 0.26 0.17 0.16 0.17 0.20 0.30 0.46 0.53 0.59 0.64 0.79 1.10 1.27 1.43 1.60 1.70 1.73 1.59 1.40 1.30 1.16 1.08 1.07 1.12 1.13 1.10 1.05
0.61 0.60 0.58 0.53 0.44 0.36 0.36 0.32 0.34 0.37 0.36 0.33 0.36 0.37 0.34 0.32 0.25 0.21 0.22 0.23 0.23 0.30 0.44 0.57 0.68 0.76 0.96 1.28 1.49 1.67 1.73 1.63 1.47 1.39 1.30 1.21 1.07 1.00 1.00 0.93 0.93 0.97 1.00
0.57 0.51 0.48 0.42 0.40 0.39 0.32 0.22 0.21 0.23 0.22 0.26 0.31 0.31 0.29 0.27 0.19 0.20 0.22 0.21 0.23 0.26 0.39 0.59 0.77 0.93 1.14 1.37 1.54 1.60 1.58 1.48 1.37 1.18 1.10 1.13 1.10 1.01 0.96 0.86 0.82 0.84 0.94
0.54 0.49 0.43 0.37 0.36 0.33 0.34 0.26 0.17 0.15 0.14 0.14 0.16 0.17 0.17 0.19 0.18 0.19 0.21 0.23 0.26 0.31 0.42 0.63 0.77 0.88 1.08 1.31 1.45 1.42 1.31 1.23 1.14 1.04 0.98 0.95 0.95 0.91 0.88 0.81 0.74 0.74 0.83
0.44 0.42 0.37 0.33 0.33 0.31 0.34 0.36 0.34 0.21 0.14 0.13 0.13 0.15 0.18 0.20 0.18 0.19 0.22 0.27 0.29 0.34 0.44 0.63 0.75 0.85 1.04 1.18 1.24 1.22 1.18 1.08 1.00 0.95 0.91 0.84 0.77 0.75 0.70 0.66 0.65 0.69 0.68
0.27 0.25 0.26 0.29 0.29 0.30 0.29 0.29 0.29 0.30 0.31 0.27 0.20 0.18 0.16 0.16 0.16 0.17 0.21 0.26 0.31 0.35 0.49 0.65 0.77 0.84 0.92 0.98 1.05 1.10 1.10 1.01 0.92 0.88 0.89 0.83 0.74 0.68 0.61 0.59 0.59 0.56 0.56
0.20 0.22 0.21 0.24 0.27 0.26 0.22 0.22 0.23 0.27 0.29 0.31 0.28 0.23 0.18 0.19 0.20 0.24 0.27 0.31 0.39 0.46 0.55 0.66 0.73 0.79 0.81 0.82 0.86 0.92 0.94 0.91 0.84 0.80 0.79 0.78 0.71 0.64 0.55 0.49 0.45 0.36 0.40
0.15 0.13 0.13 0.16 0.18 0.19 0.16 0.17 0.18 0.20 0.25 0.28 0.29 0.25 0.23 0.30 0.34 0.36 0.34 0.31 0.37 0.46 0.54 0.61 0.66 0.70 0.69 0.68 0.69 0.73 0.76 0.76 0.73 0.70 0.69 0.68 0.61 0.53 0.48 0.43 0.40 0.38 0.40
0.11 0.08 0.08 0.09 0.10 0.11 0.10 0.10 0.12 0.15 0.20 0.25 0.24 0.21 0.28 0.34 0.39 0.40 0.40 0.39 0.41 0.45 0.49 0.52 0.54 0.56 0.55 0.55 0.55 0.57 0.61 0.64 0.65 0.66 0.64 0.59 0.51 0.46 0.41 0.37 0.33 0.30 0.29
0.07 0.07 0.08 0.08 0.08 0.07 0.07 0.08 0.11 0.14 0.16 0.19 0.21 0.21 0.29 0.32 0.37 0.41 0.45 0.46 0.46 0.47 0.45 0.44 0.45 0.46 0.47 0.46 0.45 0.46 0.49 0.52 0.58 0.62 0.63 0.57 0.47 0.40 0.35 0.31 0.30 0.29 0.30
0.06 0.06 0.08 0.09 0.07 0.06 0.07 0.09 0.10 0.11 0.12 0.14 0.16 0.21 0.27 0.35 0.41 0.45 0.46 0.47 0.47 0.45 0.41 0.39 0.40 0.42 0.41 0.38 0.38 0.41 0.45 0.48 0.54 0.61 0.65 0.59 0.48 0.39 0.33 0.30 0.31 0.33 0.30
0.06 0.06 0.08 0.09 0.07 0.06 0.06 0.07 0.07 0.08 0.10 0.12 0.15 0.19 0.24 0.32 0.40 0.47 0.51 0.49 0.48 0.47 0.43 0.41 0.40 0.40 0.36 0.32 0.31 0.30 0.31 0.37 0.45 0.53 0.57 0.56 0.45 0.35 0.29 0.27 0.28 0.28 0.29
0.06 0.06 0.07 0.08 0.08 0.07 0.05 0.05 0.06 0.07 0.08 0.08 0.11 0.14 0.17 0.22 0.29 0.38 0.46 0.50 0.52 0.53 0.49 0.46 0.46 0.43 0.37 0.30 0.24 0.22 0.27 0.35 0.42 0.46 0.50 0.47 0.37 0.31 0.28 0.27 0.26 0.25 0.25
0.07 0.06 0.06 0.05 0.05 0.05 0.05 0.05 0.05 0.05 0.06 0.07 0.08 0.10 0.12 0.15 0.20 0.25 0.32 0.39 0.45 0.51 0.56 0.58 0.55 0.44 0.35 0.29 0.26 0.27 0.28 0.29 0.31 0.35 0.38 0.38 0.31 0.29 0.29 0.27 0.22 0.22 0.23

GEFSGL_prec_meanprecacc_222.txt.gz
Total_Precipitation_Accumulation
1.53 1.58 1.54 1.49 1.46 1.44 1.35 1.24 1.22 1.16 1.08 1.03 0.96 0.93 0.95 0.98 0.98 1.00 0.98 0.95 0.91 0.87 0.85 0.87 0.90 0.93 0.98 1.00 1.03 1.18 1.39 1.53 1.57 1.30 1.16 1.23 1.35 1.31 1.35 1.32 1.22 1.18 1.25
1.24 1.29 1.30 1.23 1.12 1.10 1.09 1.05 1.01 1.00 0.96 0.94 0.87 0.79 0.75 0.74 0.75 0.76 0.77 0.81 0.82 0.78 0.81 0.85 0.86 0.87 0.88 0.94 0.99 1.07 1.22 1.40 1.56 1.50 1.29 1.30 1.36 1.38 1.43 1.43 1.27 1.12 1.18
0.99 0.99 1.01 1.00 0.94 0.92 0.93 0.95 0.92 0.89 0.85 0.79 0.77 0.75 0.67 0.64 0.61 0.60 0.63 0.69 0.72 0.71 0.75 0.80 0.84 0.95 0.93 0.94 1.00 1.03 1.12 1.25 1.49 1.57 1.44 1.41 1.48 1.52 1.63 1.53 1.37 1.32 1.11
0.87 0.87 0.87 0.90 0.92 0.88 0.82 0.81 0.81 0.81 0.81 0.78 0.79 0.70 0.61 0.53 0.51 0.52 0.53 0.57 0.60 0.64 0.72 0.78 0.83 0.95 1.03 1.05 1.04 1.05 1.09 1.21 1.38 1.55 1.53 1.50 1.56 1.64 1.69 1.66 1.51 1.35 1.23
0.88 0.84 0.87 0.92 0.95 0.93 0.90 0.85 0.80 0.77 0.74 0.75 0.76 0.71 0.63 0.53 0.47 0.49 0.50 0.53 0.61 0.67 0.69 0.71 0.75 0.85 0.94 0.92 0.86 0.88 1.02 1.22 1.32 1.49 1.54 1.52 1.52 1.63 1.62 1.45 1.39 1.32 1.19
0.97 0.94 0.95 0.94 0.90 0.88 0.86 0.83 0.81 0.77 0.73 0.70 0.69 0.68 0.62 0.50 0.50 0.51 0.49 0.54 0.61 0.65 0.67 0.66 0.63 0.63 0.63 0.66 0.72 0.77 0.89 1.15 1.47 1.67 1.63 1.56 1.44 1.41 1.44 1.40 1.42 1.44 1.38
1.12 1.04 0.98 0.91 0.83 0.79 0.74 0.72 0.75 0.75 0.70 0.64 0.62 0.65 0.63 0.55 0.51 0.47 0.47 0.52 0.61 0.66 0.69 0.69 0.56 0.49 0.58 0.65 0.71 0.75 0.88 1.05 1.33 1.67 1.75 1.53 1.46 1.42 1.45 1.45 1.50 1.57 1.46
1.11 1.02 0.93 0.84 0.78 0.77 0.77 0.76 0.73 0.71 0.66 0.65 0.65 0.65 0.65 0.54 0.50 0.46 0.46 0.52 0.61 0.63 0.64 0.67 0.69 0.65 0.62 0.67 0.74 0.84 0.97 1.11 1.21 1.31 1.61 1.44 1.22 1.21 1.30 1.35 1.44 1.48 1.39
1.09 0.92 0.82 0.76 0.70 0.69 0.70 0.69 0.67 0.68 0.65 0.61 0.60 0.61 0.65 0.62 0.54 0.47 0.43 0.50 0.57 0.58 0.56 0.56 0.57 0.60 0.65 0.77 0.91 1.12 1.24 1.36 1.30 1.43 1.59 1.53 1.37 1.27 1.17 1.23 1.45 1.50 1.46
0.85 0.73 0.71 0.71 0.65 0.60 0.59 0.60 0.60 0.63 0.63 0.58 0.54 0.57 0.60 0.58 0.45 0.38 0.37 0.45 0.53 0.57 0.60 0.61 0.55 0.51 0.62 0.78 1.02 1.31 1.45 1.52 1.38 1.48 1.73 1.78 1.60 1.56 1.51 1.40 1.51 1.56 1.52
0.71 0.64 0.66 0.63 0.54 0.50 0.55 0.59 0.56 0.54 0.55 0.53 0.52 0.53 0.50 0.41 0.35 0.30 0.31 0.34 0.42 0.52 0.59 0.67 0.65 0.58 0.64 0.85 1.06 1.25 1.41 1.44 1.47 1.54 1.57 1.61 1.68 1.70 1.65 1.57 1.54 1.53 1.51
0.66 0.63 0.65 0.62 0.43 0.39 0.48 0.51 0.50 0.53 0.52 0.48 0.48 0.46 0.40 0.37 0.29 0.25 0.25 0.25 0.26 0.42 0.59 0.64 0.67 0.64 0.68 0.89 1.07 1.31 1.52 1.59 1.56 1.59 1.45 1.38 1.34 1.36 1.42 1.38 1.33 1.28 1.26
0.62 0.63 0.61 0.55 0.45 0.38 0.43 0.46 0.48 0.51 0.48 0.41 0.40 0.39 0.33 0.33 0.28 0.19 0.18 0.18 0.20 0.31 0.47 0.54 0.60 0.64 0.80 1.10 1.27 1.44 1.61 1.71 1.73 1.60 1.41 1.30 1.17 1.09 1.08 1.14 1.14 1.12 1.06
0.63 0.61 0.60 0.55 0.46 0.38 0.39 0.37 0.40 0.43 0.42 0.38 0.38 0.39 0.36 0.34 0.27 0.22 0.23 0.24 0.25 0.32 0.45 0.59 0.70 0.78 0.97 1.28 1.49 1.68 1.73 1.64 1.48 1.40 1.31 1.24 1.09 1.02 1.03 0.96 0.96 1.00 1.02
0.60 0.54 0.51 0.45 0.43 0.41 0.33 0.24 0.24 0.26 0.25 0.29 0.34 0.33 0.30 0.28 0.20 0.21 0.23 0.23 0.25 0.28 0.41 0.61 0.79 0.94 1.15 1.38 1.55 1.61 1.59 1.48 1.37 1.18 1.11 1.15 1.13 1.05 1.01 0.92 0.86 0.88 0.97
0.57 0.54 0.47 0.40 0.39 0.36 0.36 0.28 0.19 0.16 0.15 0.15 0.18 0.18 0.19 0.20 0.19 0.20 0.23 0.24 0.27 0.33 0.43 0.64 0.78 0.89 1.09 1.32 1.46 1.43 1.32 1.24 1.15 1.04 0.99 0.97 0.96 0.93 0.91 0.86 0.77 0.77 0.85
0.46 0.45 0.41 0.38 0.36 0.34 0.35 0.37 0.35 0.22 0.14 0.14 0.14 0.15 0.19 0.21 0.19 0.20 0.23 0.28 0.30 0.36 0.46 0.66 0.78 0.88 1.06 1.21 1.26 1.24 1.20 1.10 1.01 0.96 0.93 0.85 0.79 0.77 0.73 0.70 0.68 0.71 0.70
0.28 0.26 0.28 0.32 0.32 0.33 0.31 0.30 0.30 0.31 0.31 0.28 0.21 0.18 0.16 0.16 0.16 0.17 0.21 0.26 0.32 0.36 0.50 0.68 0.81 0.88 0.96 1.03 1.09 1.14 1.12 1.03 0.93 0.90 0.91 0.85 0.77 0.70 0.64 0.61 0.62 0.58 0.59
0.21 0.23 0.22 0.25 0.29 0.28 0.26 0.26 0.26 0.29 0.31 0.31 0.28 0.23 0.19 0.19 0.20 0.24 0.27 0.31 0.39 0.47 0.57 0.68 0.76 0.82 0.84 0.85 0.90 0.96 0.97 0.94 0.87 0.83 0.82 0.80 0.74 0.66 0.58 0.52 0.48 0.38 0.41
0.16 0.13 0.14 0.16 0.19 0.21 0.19 0.20 0.21 0.23 0.27 0.30 0.30 0.25 0.23 0.30 0.34 0.36 0.34 0.32 0.37 0.46 0.55 0.62 0.68 0.73 0.71 0.71 0.72 0.75 0.78 0.78 0.75 0.72 0.71 0.69 0.62 0.54 0.50 0.45 0.43 0.41 0.41
0.11 0.08 0.08 0.09 0.11 0.12 0.12 0.12 0.15 0.18 0.23 0.27 0.25 0.22 0.28 0.34 0.39 0.40 0.40 0.39 0.42 0.46 0.50 0.53 0.55 0.58 0.57 0.57 0.57 0.58 0.62 0.65 0.66 0.67 0.64 0.60 0.52 0.46 0.42 0.39 0.35 0.32 0.32
0.07 0.07 0.08 0.09 0.08 0.08 0.08 0.10 0.13 0.15 0.17 0.21 0.22 0.22 0.29 0.33 0.37 0.41 0.45 0.47 0.47 0.47 0.46 0.45 0.46 0.47 0.47 0.47 0.46 0.47 0.50 0.53 0.59 0.64 0.64 0.59 0.48 0.41 0.35 0.32 0.32 0.31 0.31
0.06 0.06 0.09 0.10 0.08 0.08 0.09 0.11 0.12 0.12 0.13 0.15 0.17 0.21 0.27 0.35 0.41 0.45 0.47 0.47 0.47 0.45 0.41 0.39 0.41 0.43 0.42 0.39 0.39 0.42 0.46 0.49 0.55 0.62 0.67 0.61 0.49 0.41 0.34 0.32 0.33 0.34 0.32
0.06 0.07 0.10 0.11 0.08 0.08 0.08 0.09 0.09 0.10 0.12 0.13 0.16 0.20 0.25 0.32 0.40 0.47 0.51 0.49 0.48 0.47 0.44 0.42 0.41 0.41 0.37 0.33 0.31 0.30 0.32 0.37 0.46 0.54 0.58 0.57 0.46 0.36 0.30 0.29 0.29 0.30 0.30
0.09 0.09 0.08 0.09 0.09 0.09 0.08 0.08 0.09 0.10 0.10 0.10 0.12 0.14 0.17 0.22 0.29 0.38 0.46 0.50 0.53 0.53 0.50 0.47 0.46 0.44 0.38 0.30 0.25 0.22 0.28 0.35 0.42 0.47 0.51 0.48 0.38 0.31 0.29 0.28 0.27 0.26 0.27
0.08 0.09 0.08 0.07 0.07 0.08 0.09 0.09 0.08 0.08 0.08 0.08 0.09 0.10 0.12 0.15 0.20 0.26 0.33 0.39 0.45 0.52 0.56 0.58 0.55 0.44 0.35 0.29 0.26 0.27 0.28 0.29 0.31 0.35 0.39 0.38 0.31 0.29 0.29 0.28 0.23 0.23 0.25

GEFSGL_prec_meanprecacc_228.txt.gz
Total_Precipitation_Accumulation
1.57 1.65 1.62 1.57 1.54 1.54 1.45 1.34 1.29 1.22 1.13 1.07 1.00 0.97 0.98 1.01 1.00 1.02 1.00 0.98 0.94 0.90 0.89 0.90 0.93 0.96 1.01 1.02 1.06 1.20 1.42 1.56 1.59 1.32 1.18 1.24 1.37 1.33 1.38 1.34 1.24 1.20 1.27
1.30 1.40 1.43 1.35 1.22 1.18 1.16 1.12 1.06 1.04 1.00 0.98 0.90 0.83 0.79 0.77 0.77 0.78 0.80 0.83 0.85 0.81 0.84 0.88 0.89 0.90 0.91 0.96 1.03 1.11 1.26 1.45 1.61 1.54 1.32 1.32 1.38 1.41 1.46 1.46 1.28 1.14 1.19
1.11 1.13 1.16 1.12 1.03 0.98 0.98 1.00 0.96 0.93 0.88 0.82 0.79 0.78 0.70 0.68 0.65 0.63 0.66 0.72 0.76 0.74 0.77 0.82 0.87 0.98 0.96 0.98 1.05 1.08 1.18 1.30 1.54 1.62 1.47 1.44 1.51 1.55 1.66 1.55 1.39 1.35 1.13
0.93 0.95 0.96 0.97 0.97 0.93 0.86 0.84 0.85 0.85 0.84 0.81 0.81 0.73 0.65 0.58 0.56 0.55 0.56 0.60 0.63 0.68 0.75 0.81 0.86 0.99 1.07 1.10 1.09 1.10 1.13 1.26 1.42 1.59 1.56 1.54 1.59 1.67 1.72 1.69 1.55 1.39 1.25
0.93 0.90 0.91 0.96 0.98 0.96 0.93 0.88 0.84 0.80 0.77 0.77 0.78 0.74 0.67 0.59 0.53 0.53 0.53 0.56 0.65 0.71 0.72 0.74 0.78 0.88 0.98 0.97 0.90 0.92 1.05 1.26 1.35 1.52 1.59 1.55 1.55 1.66 1.66 1.50 1.43 1.35 1.22
1.02 0.99 0.98 0.97 0.93 0.91 0.89 0.86 0.83 0.79 0.76 0.72 0.71 0.71 0.66 0.53 0.54 0.53 0.50 0.56 0.62 0.67 0.69 0.68 0.66 0.65 0.65 0.68 0.74 0.79 0.91 1.17 1.49 1.69 1.67 1.60 1.47 1.45 1.49 1.45 1.46 1.47 1.41
1.16 1.07 1.01 0.94 0.85 0.82 0.77 0.75 0.78 0.78 0.72 0.66 0.64 0.66 0.64 0.56 0.53 0.48 0.48 0.53 0.63 0.68 0.71 0.71 0.58 0.50 0.59 0.66 0.72 0.76 0.89 1.06 1.35 1.69 1.78 1.57 1.50 1.46 1.51 1.50 1.55 1.61 1.49
1.13 1.04 0.95 0.87 0.80 0.80 0.80 0.79 0.77 0.75 0.69 0.67 0.67 0.67 0.65 0.54 0.51 0.47 0.47 0.52 0.62 0.64 0.65 0.68 0.70 0.66 0.63 0.69 0.76 0.85 0.99 1.13 1.24 1.34 1.63 1.46 1.25 1.24 1.33 1.39 1.49 1.52 1.43
1.11 0.94 0.84 0.78 0.73 0.71 0.72 0.72 0.71 0.70 0.67 0.63 0.61 0.62 0.67 0.63 0.56 0.49 0.44 0.51 0.58 0.59 0.57 0.58 0.58 0.61 0.67 0.80 0.93 1.14 1.26 1.38 1.32 1.45 1.61 1.56 1.39 1.29 1.19 1.26 1.48 1.54 1.49
0.88 0.76 0.73 0.73 0.67 0.62 0.62 0.63 0.63 0.65 0.64 0.59 0.56 0.58 0.62 0.60 0.47 0.40 0.39 0.46 0.54 0.59 0.62 0.62 0.55 0.52 0.63 0.78 1.03 1.33 1.46 1.53 1.39 1.49 1.74 1.79 1.61 1.57 1.53 1.43 1.55 1.61 1.56
0.74 0.66 0.69 0.67 0.58 0.53 0.57 0.60 0.59 0.56 0.56 0.54 0.54 0.55 0.52 0.43 0.37 0.32 0.32 0.35 0.44 0.53 0.60 0.68 0.66 0.59 0.65 0.85 1.07 1.26 1.42 1.45 1.48 1.55 1.58 1.61 1.69 1.71 1.67 1.60 1.57 1.57 1.55
0.69 0.65 0.68 0.66 0.47 0.41 0.50 0.53 0.53 0.57 0.55 0.51 0.51 0.50 0.42 0.39 0.30 0.27 0.27 0.28 0.29 0.44 0.62 0.67 0.68 0.65 0.69 0.90 1.08 1.32 1.53 1.60 1.58 1.60 1.46 1.38 1.35 1.37 1.43 1.40 1.35 1.32 1.30
0.65 0.66 0.64 0.59 0.49 0.42 0.46 0.49 0.51 0.55 0.52 0.45 0.46 0.46 0.38 0.38 0.32 0.23 0.23 0.24 0.26 0.34 0.49 0.58 0.63 0.66 0.81 1.12 1.29 1.45 1.62 1.73 1.75 1.61 1.42 1.31 1.17 1.10 1.09 1.16 1.16 1.16 1.10
0.65 0.64 0.62 0.57 0.48 0.41 0.42 0.41 0.43 0.46 0.46 0.42 0.42 0.43 0.40 0.38 0.32 0.27 0.28 0.30 0.31 0.36 0.50 0.64 0.75 0.81 1.00 1.31 1.52 1.70 1.75 1.66 1.49 1.41 1.32 1.25 1.10 1.03 1.05 0.98 1.00 1.05 1.05
0.62 0.56 0.52 0.46 0.44 0.43 0.37 0.27 0.27 0.29 0.28 0.32 0.37 0.36 0.33 0.30 0.22 0.23 0.25 0.25 0.28 0.31 0.44 0.65 0.83 0.97 1.18 1.40 1.57 1.63 1.61 1.50 1.39 1.20 1.13 1.16 1.14 1.06 1.02 0.94 0.91 0.93 1.01
0.59 0.55 0.48 0.41 0.40 0.37 0.39 0.31 0.21 0.19 0.18 0.17 0.19 0.20 0.20 0.22 0.20 0.21 0.23 0.25 0.28 0.34 0.45 0.66 0.80 0.90 1.10 1.34 1.47 1.44 1.34 1.26 1.17 1.07 1.02 0.99 0.97 0.94 0.92 0.88 0.81 0.80 0.88
0.47 0.45 0.42 0.38 0.37 0.34 0.36 0.39 0.37 0.25 0.18 0.17 0.17 0.17 0.20 0.22 0.21 0.21 0.24 0.28 0.31 0.37 0.47 0.67 0.79 0.89 1.07 1.22 1.27 1.25 1.21 1.11 1.03 0.98 0.95 0.87 0.81 0.79 0.75 0.73 0.72 0.75 0.72
0.28 0.27 0.28 0.32 0.33 0.33 0.31 0.31 0.32 0.34 0.35 0.31 0.23 0.20 0.18 0.18 0.18 0.18 0.22 0.26 0.32 0.37 0.51 0.69 0.82 0.89 0.97 1.04 1.10 1.15 1.14 1.04 0.95 0.92 0.92 0.86 0.80 0.74 0.67 0.65 0.65 0.62 0.62
0.21 0.23 0.23 0.25 0.29 0.29 0.26 0.27 0.27 0.30 0.33 0.34 0.31 0.25 0.21 0.21 0.22 0.24 0.27 0.31 0.39 0.47 0.57 0.69 0.76 0.82 0.85 0.85 0.90 0.97 0.98 0.96 0.89 0.85 0.84 0.82 0.77 0.70 0.61 0.55 0.52 0.42 0.45
0.16 0.13 0.14 0.16 0.19 0.21 0.19 0.21 0.22 0.25 0.29 0.31 0.31 0.28 0.27 0.33 0.36 0.37 0.34 0.32 0.38 0.47 0.55 0.63 0.68 0.73 0.71 0.71 0.72 0.76 0.79 0.80 0.76 0.74 0.72 0.71 0.64 0.57 0.53 0.48 0.45 0.43 0.44
0.12 0.09 0.08 0.09 0.11 0.12 0.12 0.12 0.15 0.19 0.24 0.29 0.27 0.24 0.32 0.38 0.43 0.42 0.41 0.40 0.42 0.47 0.51 0.53 0.56 0.58 0.57 0.57 0.57 0.59 0.63 0.66 0.67 0.68 0.66 0.61 0.53 0.48 0.44 0.41 0.37 0.34 0.33
0.08 0.07 0.08 0.09 0.09 0.08 0.09 0.10 0.14 0.16 0.19 0.23 0.26 0.26 0.34 0.37 0.42 0.45 0.47 0.48 0.48 0.48 0.46 0.46 0.46 0.47 0.48 0.48 0.46 0.48 0.50 0.54 0.60 0.65 0.65 0.60 0.49 0.42 0.37 0.33 0.33 0.33 0.33
0.07 0.07 0.10 0.11 0.09 0.08 0.09 0.11 0.13 0.14 0.15 0.18 0.21 0.25 0.31 0.39 0.44 0.49 0.50 0.49 0.49 0.47 0.42 0.41 0.42 0.44 0.43 0.40 0.39 0.43 0.46 0.50 0.55 0.63 0.67 0.62 0.50 0.42 0.35 0.33 0.35 0.36 0.34
0.08 0.10 0.12 0.13 0.10 0.09 0.09 0.10 0.11 0.13 0.15 0.16 0.18 0.22 0.26 0.35 0.42 0.49 0.53 0.51 0.50 0.48 0.45 0.43 0.42 0.42 0.38 0.34 0.32 0.31 0.32 0.37 0.46 0.54 0.58 0.57 0.47 0.37 0.31 0.30 0.31 0.31 0.32
0.10 0.10 0.09 0.10 0.10 0.11 0.10 0.10 0.10 0.12 0.12 0.11 0.13 0.16 0.19 0.24 0.31 0.40 0.48 0.52 0.54 0.54 0.50 0.48 0.47 0.44 0.38 0.31 0.25 0.23 0.28 0.36 0.42 0.47 0.51 0.48 0.38 0.32 0.29 0.29 0.28 0.27 0.28
0.08 0.09 0.08 0.08 0.07 0.08 0.10 0.10 0.09 0.09 0.10 0.10 0.10 0.12 0.14 0.17 0.22 0.27 0.34 0.40 0.46 0.52 0.57 0.58 0.55 0.45 0.36 0.30 0.27 0.28 0.29 0.29 0.31 0.35 0.39 0.39 0.31 0.29 0.30 0.28 0.24 0.23 0.26

GEFSGL_prec_meanprecacc_234.txt.gz
Total_Precipitation_Accumulation
1.62 1.70 1.69 1.66 1.63 1.64 1.55 1.40 1.35 1.26 1.17 1.11 1.05 1.02 1.03 1.06 1.06 1.07 1.05 1.02 0.99 0.95 0.94 0.95 0.97 1.02 1.09 1.10 1.13 1.27 1.48 1.63 1.65 1.34 1.19 1.26 1.41 1.39 1.41 1.37 1.28 1.24 1.30
1.35 1.48 1.53 1.46 1.34 1.32 1.26 1.20 1.13 1.08 1.05 1.02 0.93 0.87 0.84 0.84 0.83 0.83 0.85 0.88 0.90 0.86 0.89 0.93 0.94 0.96 0.99 1.05 1.10 1.17 1.32 1.52 1.68 1.59 1.35 1.35 1.42 1.45 1.51 1.50 1.31 1.17 1.23
1.15 1.21 1.27 1.24 1.15 1.09 1.07 1.09 1.02 0.98 0.94 0.88 0.85 0.83 0.76 0.73 0.69 0.67 0.70 0.77 0.80 0.79 0.83 0.89 0.93 1.05 1.04 1.05 1.11 1.14 1.24 1.37 1.62 1.69 1.52 1.48 1.55 1.62 1.72 1.60 1.43 1.39 1.16
0.99 1.04 1.07 1.08 1.06 1.01 0.95 0.94 0.92 0.91 0.89 0.86 0.85 0.77 0.69 0.63 0.62 0.61 0.63 0.67 0.71 0.75 0.82 0.88 0.92 1.04 1.12 1.14 1.12 1.14 1.18 1.31 1.49 1.65 1.62 1.59 1.66 1.75 1.80 1.75 1.60 1.45 1.30
1.01 0.98 1.00 1.06 1.07 1.03 1.01 0.96 0.90 0.85 0.81 0.81 0.82 0.77 0.70 0.61 0.57 0.57 0.58 0.61 0.70 0.75 0.76 0.77 0.81 0.91 1.00 0.99 0.92 0.94 1.08 1.30 1.40 1.57 1.63 1.61 1.61 1.74 1.73 1.56 1.50 1.42 1.28
1.08 1.06 1.05 1.04 0.99 0.97 0.96 0.92 0.88 0.83 0.80 0.77 0.75 0.73 0.68 0.56 0.57 0.58 0.55 0.60 0.65 0.69 0.71 0.71 0.68 0.67 0.66 0.69 0.75 0.80 0.92 1.19 1.52 1.73 1.70 1.64 1.53 1.52 1.56 1.52 1.52 1.53 1.46
1.22 1.12 1.07 0.99 0.91 0.88 0.81 0.79 0.82 0.82 0.77 0.71 0.68 0.69 0.67 0.60 0.57 0.51 0.50 0.55 0.65 0.71 0.75 0.75 0.60 0.51 0.60 0.67 0.73 0.77 0.90 1.07 1.36 1.71 1.82 1.61 1.55 1.52 1.57 1.57 1.62 1.68 1.55
1.17 1.06 0.99 0.92 0.86 0.84 0.83 0.82 0.81 0.80 0.74 0.72 0.71 0.70 0.70 0.59 0.54 0.49 0.49 0.54 0.65 0.67 0.68 0.71 0.73 0.68 0.64 0.71 0.77 0.86 1.00 1.15 1.26 1.35 1.66 1.49 1.28 1.29 1.39 1.44 1.54 1.57 1.47
1.14 0.96 0.87 0.82 0.77 0.74 0.76 0.78 0.77 0.76 0.73 0.68 0.66 0.67 0.73 0.69 0.59 0.51 0.46 0.54 0.62 0.62 0.59 0.59 0.59 0.62 0.68 0.80 0.95 1.15 1.28 1.40 1.33 1.46 1.63 1.57 1.41 1.31 1.22 1.29 1.52 1.58 1.53
0.92 0.80 0.76 0.76 0.71 0.68 0.68 0.69 0.69 0.70 0.69 0.64 0.61 0.64 0.68 0.65 0.51 0.43 0.41 0.48 0.57 0.60 0.63 0.63 0.56 0.53 0.64 0.79 1.05 1.35 1.49 1.55 1.41 1.51 1.76 1.80 1.63 1.60 1.55 1.46 1.59 1.65 1.61
0.78 0.70 0.73 0.71 0.64 0.60 0.62 0.65 0.63 0.60 0.61 0.59 0.58 0.60 0.57 0.48 0.40 0.34 0.34 0.38 0.46 0.55 0.62 0.70 0.68 0.60 0.66 0.86 1.09 1.28 1.44 1.47 1.50 1.57 1.60 1.63 1.70 1.74 1.71 1.64 1.61 1.62 1.60
0.72 0.68 0.72 0.71 0.52 0.44 0.54 0.57 0.57 0.61 0.59 0.56 0.56 0.55 0.47 0.43 0.33 0.29 0.30 0.30 0.31 0.46 0.64 0.69 0.70 0.66 0.71 0.92 1.09 1.34 1.54 1.62 1.61 1.63 1.49 1.40 1.37 1.39 1.46 1.44 1.39 1.36 1.33
0.69 0.70 0.69 0.63 0.53 0.46 0.50 0.53 0.57 0.60 0.57 0.50 0.50 0.50 0.41 0.41 0.35 0.27 0.26 0.27 0.28 0.37 0.52 0.59 0.64 0.67 0.83 1.14 1.31 1.47 1.64 1.75 1.77 1.64 1.44 1.34 1.20 1.13 1.12 1.18 1.20 1.19 1.12
0.73 0.72 0.70 0.64 0.52 0.45 0.47 0.45 0.47 0.50 0.49 0.44 0.44 0.45 0.42 0.40 0.35 0.31 0.33 0.35 0.35 0.39 0.52 0.65 0.76 0.83 1.02 1.33 1.54 1.72 1.76 1.67 1.51 1.43 1.35 1.27 1.13 1.06 1.07 1.01 1.04 1.08 1.08
0.68 0.61 0.58 0.51 0.49 0.47 0.40 0.30 0.29 0.30 0.29 0.33 0.39 0.38 0.35 0.32 0.25 0.27 0.29 0.31 0.33 0.35 0.47 0.68 0.86 1.01 1.21 1.43 1.60 1.66 1.63 1.52 1.40 1.22 1.14 1.19 1.16 1.08 1.04 0.97 0.95 0.97 1.05
0.61 0.57 0.50 0.43 0.43 0.40 0.42 0.32 0.22 0.19 0.18 0.18 0.20 0.21 0.21 0.23 0.22 0.24 0.26 0.28 0.32 0.38 0.48 0.69 0.83 0.93 1.13 1.36 1.50 1.47 1.37 1.28 1.19 1.08 1.03 1.00 0.98 0.95 0.94 0.91 0.85 0.84 0.91
0.49 0.46 0.43 0.39 0.38 0.36 0.39 0.41 0.38 0.25 0.18 0.18 0.18 0.18 0.21 0.23 0.22 0.22 0.26 0.30 0.32 0.39 0.50 0.70 0.81 0.91 1.09 1.23 1.29 1.28 1.23 1.14 1.05 1.00 0.96 0.89 0.82 0.80 0.78 0.76 0.75 0.78 0.76
0.29 0.28 0.29 0.33 0.34 0.34 0.33 0.32 0.33 0.35 0.35 0.31 0.24 0.21 0.20 0.20 0.19 0.20 0.24 0.28 0.34 0.38 0.52 0.70 0.83 0.90 0.98 1.05 1.11 1.17 1.16 1.07 0.97 0.94 0.94 0.89 0.82 0.76 0.69 0.67 0.67 0.64 0.64
0.22 0.24 0.23 0.25 0.29 0.29 0.27 0.27 0.28 0.31 0.34 0.34 0.31 0.26 0.23 0.22 0.24 0.27 0.29 0.33 0.41 0.48 0.58 0.70 0.77 0.83 0.86 0.86 0.91 0.97 0.99 0.98 0.93 0.89 0.87 0.84 0.78 0.71 0.63 0.56 0.54 0.44 0.46
0.17 0.14 0.15 0.17 0.20 0.22 0.20 0.22 0.23 0.26 0.29 0.32 0.32 0.28 0.28 0.34 0.38 0.40 0.37 0.34 0.39 0.48 0.57 0.65 0.71 0.77 0.75 0.74 0.73 0.77 0.81 0.83 0.80 0.77 0.74 0.73 0.67 0.59 0.55 0.49 0.47 0.45 0.45
0.12 0.09 0.09 0.10 0.12 0.13 0.12 0.13 0.16 0.19 0.24 0.29 0.28 0.25 0.33 0.39 0.44 0.44 0.43 0.42 0.44 0.49 0.53 0.56 0.59 0.63 0.61 0.60 0.59 0.61 0.65 0.69 0.70 0.70 0.68 0.64 0.56 0.50 0.45 0.42 0.39 0.35 0.35
0.08 0.07 0.09 0.10 0.09 0.08 0.09 0.11 0.14 0.16 0.19 0.24 0.27 0.27 0.35 0.39 0.44 0.48 0.50 0.50 0.49 0.49 0.48 0.48 0.48 0.49 0.50 0.50 0.48 0.49 0.52 0.55 0.61 0.66 0.68 0.62 0.51 0.45 0.39 0.35 0.34 0.34 0.34
0.07 0.07 0.10 0.11 0.10 0.09 0.10 0.12 0.13 0.14 0.16 0.19 0.22 0.26 0.32 0.40 0.46 0.51 0.53 0.51 0.50 0.48 0.43 0.42 0.43 0.45 0.45 0.41 0.41 0.45 0.48 0.51 0.57 0.64 0.69 0.64 0.52 0.44 0.38 0.35 0.36 0.38 0.35
0.09 0.11 0.13 0.13 0.10 0.10 0.10 0.11 0.12 0.13 0.15 0.16 0.18 0.22 0.27 0.35 0.43 0.50 0.55 0.53 0.51 0.49 0.46 0.44 0.43 0.42 0.39 0.35 0.33 0.32 0.34 0.39 0.48 0.56 0.60 0.60 0.49 0.40 0.34 0.32 0.33 0.33 0.33
0.10 0.10 0.10 0.11 0.11 0.12 0.11 0.10 0.11 0.13 0.13 0.12 0.14 0.17 0.20 0.25 0.32 0.40 0.49 0.53 0.55 0.55 0.51 0.48 0.48 0.45 0.39 0.31 0.26 0.23 0.29 0.37 0.44 0.49 0.53 0.50 0.40 0.34 0.31 0.31 0.30 0.29 0.29
0.08 0.09 0.09 0.08 0.08 0.09 0.11 0.11 0.10 0.10 0.11 0.11 0.11 0.13 0.15 0.18 0.22 0.28 0.35 0.42 0.47 0.53 0.57 0.59 0.56 0.45 0.37 0.30 0.27 0.28 0.30 0.30 0.33 0.36 0.40 0.39 0.33 0.31 0.31 0.30 0.25 0.25 0.27

GEFSGL_prec_meanprecacc_240.txt.gz
Total_Precipitation_Accumulation
1.67 1.74 1.72 1.69 1.67 1.66 1.57 1.43 1.38 1.31 1.21 1.14 1.06 1.04 1.05 1.10 1.10 1.13 1.10 1.06 1.03 1.00 0.99 1.00 1.03 1.09 1.17 1.18 1.19 1.32 1.53 1.68 1.71 1.39 1.23 1.30 1.45 1.41 1.43 1.39 1.29 1.26 1.32
1.39 1.51 1.56 1.50 1.40 1.36 1.29 1.22 1.15 1.10 1.07 1.05 0.95 0.88 0.86 0.85 0.85 0.87 0.89 0.91 0.92 0.88 0.91 0.96 0.98 1.00 1.04 1.11 1.16 1.23 1.37 1.57 1.73 1.64 1.40 1.39 1.45 1.48 1.52 1.52 1.33 1.18 1.24
1.17 1.23 1.29 1.27 1.19 1.13 1.10 1.12 1.05 1.01 0.97 0.91 0.87 0.85 0.77 0.75 0.72 0.71 0.74 0.81 0.84 0.82 0.85 0.90 0.95 1.07 1.07 1.09 1.16 1.18 1.27 1.40 1.66 1.73 1.55 1.51 1.57 1.63 1.74 1.61 1.45 1.41 1.19
1.01 1.07 1.10 1.11 1.11 1.05 0.98 0.97 0.95 0.94 0.92 0.88 0.88 0.80 0.71 0.65 0.65 0.65 0.67 0.72 0.75 0.78 0.84 0.89 0.93 1.06 1.14 1.16 1.15 1.17 1.21 1.33 1.51 1.68 1.65 1.61 1.68 1.76 1.81 1.76 1.62 1.48 1.34
1.03 1.00 1.02 1.09 1.11 1.07 1.05 1.01 0.95 0.89 0.85 0.84 0.84 0.79 0.72 0.63 0.59 0.60 0.61 0.65 0.74 0.77 0.78 0.80 0.84 0.93 1.01 1.00 0.94 0.96 1.10 1.31 1.41 1.59 1.64 1.62 1.64 1.76 1.75 1.57 1.51 1.45 1.30
1.10 1.07 1.07 1.07 1.02 1.01 1.01 0.97 0.93 0.88 0.84 0.81 0.78 0.75 0.70 0.58 0.59 0.61 0.58 0.63 0.70 0.74 0.75 0.75 0.71 0.70 0.68 0.70 0.76 0.81 0.93 1.19 1.52 1.73 1.71 1.65 1.54 1.54 1.58 1.54 1.54 1.55 1.48
1.23 1.14 1.09 1.02 0.94 0.90 0.84 0.83 0.87 0.86 0.80 0.74 0.71 0.71 0.69 0.62 0.61 0.55 0.55 0.60 0.71 0.77 0.80 0.78 0.63 0.52 0.61 0.68 0.73 0.77 0.90 1.07 1.36 1.72 1.82 1.61 1.55 1.53 1.59 1.58 1.63 1.69 1.56
1.18 1.08 1.01 0.96 0.90 0.89 0.87 0.86 0.84 0.83 0.76 0.74 0.73 0.72 0.71 0.61 0.58 0.52 0.52 0.57 0.68 0.71 0.71 0.74 0.75 0.69 0.65 0.71 0.77 0.87 1.01 1.15 1.26 1.36 1.66 1.50 1.28 1.29 1.39 1.45 1.54 1.57 1.48
1.16 0.99 0.90 0.85 0.80 0.77 0.80 0.81 0.79 0.78 0.74 0.69 0.68 0.68 0.74 0.70 0.61 0.53 0.49 0.57 0.65 0.65 0.62 0.62 0.62 0.65 0.71 0.83 0.96 1.16 1.28 1.41 1.33 1.47 1.63 1.58 1.42 1.32 1.23 1.30 1.53 1.59 1.54
0.94 0.81 0.78 0.79 0.74 0.71 0.71 0.71 0.70 0.70 0.70 0.64 0.62 0.65 0.69 0.66 0.52 0.45 0.43 0.51 0.61 0.65 0.66 0.67 0.60 0.56 0.67 0.82 1.07 1.36 1.50 1.56 1.42 1.51 1.77 1.81 1.64 1.61 1.56 1.47 1.60 1.67 1.62
0.79 0.71 0.75 0.74 0.67 0.63 0.64 0.66 0.64 0.61 0.62 0.59 0.59 0.61 0.59 0.49 0.42 0.36 0.36 0.39 0.49 0.59 0.65 0.73 0.71 0.63 0.69 0.89 1.11 1.30 1.45 1.48 1.51 1.58 1.61 1.64 1.71 1.75 1.72 1.65 1.62 1.63 1.61
0.73 0.69 0.73 0.73 0.54 0.46 0.56 0.58 0.58 0.62 0.60 0.58 0.58 0.57 0.49 0.44 0.35 0.31 0.32 0.32 0.34 0.49 0.69 0.72 0.73 0.70 0.74 0.93 1.11 1.35 1.55 1.63 1.61 1.64 1.49 1.41 1.37 1.40 1.47 1.44 1.40 1.36 1.34
0.70 0.71 0.70 0.64 0.54 0.47 0.52 0.54 0.58 0.62 0.59 0.52 0.53 0.52 0.43 0.42 0.37 0.28 0.28 0.30 0.31 0.40 0.57 0.64 0.67 0.70 0.85 1.15 1.32 1.48 1.65 1.75 1.77 1.64 1.45 1.34 1.21 1.13 1.13 1.20 1.22 1.20 1.14
0.74 0.73 0.71 0.65 0.54 0.46 0.48 0.46 0.48 0.51 0.51 0.46 0.46 0.47 0.44 0.42 0.36 0.32 0.35 0.38 0.39 0.42 0.55 0.68 0.78 0.85 1.03 1.34 1.55 1.72 1.76 1.67 1.51 1.44 1.35 1.28 1.14 1.07 1.08 1.03 1.05 1.09 1.09
0.71 0.65 0.62 0.54 0.51 0.48 0.42 0.31 0.30 0.31 0.31 0.35 0.40 0.39 0.36 0.33 0.26 0.28 0.31 0.32 0.36 0.39 0.49 0.69 0.87 1.02 1.22 1.43 1.60 1.66 1.63 1.52 1.41 1.22 1.15 1.19 1.17 1.09 1.05 0.98 0.96 0.97 1.06
0.65 0.61 0.54 0.48 0.46 0.43 0.44 0.34 0.25 0.22 0.20 0.19 0.21 0.21 0.21 0.24 0.23 0.25 0.27 0.29 0.33 0.40 0.50 0.71 0.84 0.94 1.14 1.37 1.51 1.47 1.37 1.29 1.20 1.09 1.04 1.01 0.99 0.96 0.95 0.92 0.86 0.86 0.93
0.53 0.52 0.48 0.44 0.41 0.39 0.41 0.43 0.39 0.27 0.19 0.19 0.18 0.19 0.21 0.23 0.22 0.23 0.26 0.30 0.33 0.40 0.52 0.72 0.84 0.93 1.11 1.25 1.30 1.28 1.24 1.15 1.07 1.05 1.01 0.93 0.86 0.83 0.81 0.78 0.77 0.80 0.78
0.33 0.32 0.33 0.37 0.37 0.36 0.33 0.33 0.34 0.36 0.36 0.31 0.24 0.21 0.20 0.20 0.19 0.20 0.24 0.28 0.34 0.38 0.53 0.71 0.84 0.92 1.00 1.08 1.14 1.18 1.17 1.09 1.01 1.00 1.04 0.99 0.89 0.81 0.73 0.70 0.69 0.65 0.65
0.26 0.28 0.26 0.27 0.30 0.30 0.27 0.28 0.29 0.32 0.34 0.34 0.31 0.26 0.23 0.22 0.24 0.27 0.29 0.33 0.41 0.49 0.58 0.71 0.80 0.87 0.90 0.89 0.93 0.99 1.01 1.01 0.97 0.95 0.94 0.93 0.86 0.77 0.67 0.59 0.55 0.45 0.47
0.18 0.15 0.16 0.18 0.21 0.23 0.21 0.23 0.24 0.26 0.30 0.32 0.32 0.28 0.28 0.34 0.38 0.40 0.37 0.34 0.40 0.49 0.58 0.67 0.74 0.80 0.78 0.75 0.74 0.78 0.83 0.86 0.84 0.81 0.79 0.78 0.72 0.65 0.58 0.52 0.49 0.46 0.46
0.13 0.11 0.11 0.12 0.14 0.15 0.14 0.15 0.17 0.20 0.25 0.30 0.28 0.25 0.33 0.39 0.44 0.44 0.43 0.42 0.45 0.49 0.54 0.57 0.60 0.64 0.63 0.62 0.61 0.63 0.68 0.72 0.73 0.73 0.71 0.67 0.61 0.56 0.50 0.45 0.41 0.38 0.37
0.09 0.09 0.11 0.13 0.13 0.11 0.11 0.12 0.15 0.17 0.20 0.24 0.27 0.27 0.35 0.39 0.44 0.48 0.50 0.50 0.50 0.50 0.48 0.48 0.49 0.49 0.51 0.51 0.50 0.51 0.54 0.57 0.63 0.67 0.69 0.64 0.53 0.47 0.41 0.37 0.36 0.36 0.36
0.09 0.09 0.11 0.13 0.12 0.11 0.12 0.14 0.15 0.15 0.17 0.19 0.22 0.26 0.32 0.40 0.46 0.51 0.53 0.52 0.50 0.48 0.43 0.42 0.43 0.46 0.45 0.42 0.42 0.46 0.50 0.52 0.57 0.65 0.70 0.64 0.53 0.45 0.39 0.37 0.38 0.40 0.37
0.10 0.11 0.13 0.13 0.11 0.10 0.11 0.12 0.13 0.15 0.17 0.19 0.20 0.23 0.28 0.36 0.43 0.51 0.55 0.53 0.52 0.50 0.46 0.44 0.43 0.43 0.39 0.35 0.33 0.33 0.34 0.39 0.48 0.57 0.61 0.60 0.50 0.41 0.35 0.34 0.35 0.35 0.35
0.11 0.10 0.10 0.11 0.11 0.12 0.12 0.12 0.14 0.15 0.15 0.15 0.16 0.18 0.21 0.26 0.32 0.41 0.49 0.54 0.55 0.55 0.52 0.48 0.48 0.45 0.39 0.31 0.26 0.24 0.30 0.37 0.45 0.49 0.53 0.50 0.40 0.34 0.32 0.32 0.31 0.30 0.31
0.09 0.09 0.09 0.08 0.08 0.10 0.12 0.13 0.12 0.13 0.14 0.13 0.13 0.15 0.17 0.20 0.24 0.29 0.36 0.43 0.48 0.54 0.58 0.60 0.57 0.46 0.37 0.30 0.27 0.28 0.30 0.30 0.33 0.36 0.40 0.39 0.33 0.31 0.32 0.31 0.27 0.27 0.28

GEFSGL_prec_meanprecacc_246.txt.gz
Total_Precipitation_Accumulation
1.75 1.81 1.78 1.75 1.72 1.70 1.61 1.46 1.40 1.34 1.23 1.17 1.11 1.07 1.08 1.12 1.11 1.14 1.11 1.08 1.05 1.02 1.00 1.01 1.04 1.10 1.18 1.19 1.21 1.36 1.56 1.71 1.73 1.42 1.27 1.35 1.49 1.45 1.46 1.41 1.31 1.28 1.33
1.45 1.58 1.63 1.55 1.45 1.40 1.32 1.25 1.18 1.12 1.09 1.06 0.97 0.91 0.88 0.87 0.86 0.88 0.89 0.92 0.93 0.89 0.92 0.97 0.98 1.01 1.05 1.12 1.17 1.24 1.39 1.60 1.75 1.67 1.44 1.43 1.49 1.52 1.56 1.55 1.35 1.20 1.26
1.24 1.30 1.34 1.31 1.23 1.16 1.13 1.16 1.08 1.03 0.98 0.92 0.88 0.86 0.79 0.77 0.73 0.72 0.75 0.82 0.85 0.83 0.86 0.91 0.96 1.08 1.08 1.10 1.16 1.19 1.29 1.42 1.69 1.76 1.58 1.54 1.59 1.66 1.76 1.64 1.47 1.42 1.20
1.06 1.11 1.13 1.15 1.14 1.08 1.01 1.00 0.99 0.97 0.94 0.90 0.89 0.81 0.74 0.69 0.68 0.68 0.71 0.75 0.78 0.80 0.86 0.91 0.95 1.08 1.15 1.17 1.16 1.18 1.22 1.36 1.55 1.71 1.67 1.63 1.70 1.78 1.83 1.78 1.63 1.49 1.35
1.07 1.03 1.05 1.12 1.13 1.10 1.09 1.05 0.99 0.93 0.88 0.87 0.86 0.81 0.75 0.68 0.64 0.66 0.67 0.70 0.78 0.82 0.81 0.83 0.88 0.97 1.05 1.04 0.97 0.99 1.13 1.35 1.44 1.61 1.67 1.63 1.64 1.77 1.76 1.57 1.52 1.45 1.30
1.13 1.09 1.08 1.08 1.04 1.03 1.03 1.00 0.97 0.92 0.89 0.86 0.83 0.80 0.75 0.63 0.64 0.66 0.64 0.68 0.74 0.78 0.79 0.78 0.75 0.74 0.71 0.73 0.79 0.84 0.96 1.22 1.55 1.75 1.73 1.66 1.55 1.54 1.59 1.54 1.54 1.55 1.48
1.24 1.15 1.10 1.05 0.96 0.92 0.86 0.86 0.90 0.88 0.83 0.78 0.75 0.75 0.72 0.66 0.65 0.59 0.59 0.64 0.74 0.81 0.83 0.81 0.65 0.55 0.63 0.69 0.75 0.79 0.92 1.09 1.38 1.73 1.83 1.62 1.56 1.53 1.59 1.58 1.64 1.69 1.57
1.19 1.09 1.03 0.98 0.93 0.91 0.90 0.88 0.86 0.85 0.78 0.77 0.76 0.75 0.74 0.64 0.61 0.56 0.56 0.61 0.72 0.74 0.74 0.77 0.77 0.71 0.67 0.72 0.79 0.88 1.01 1.16 1.27 1.37 1.67 1.50 1.29 1.30 1.40 1.45 1.55 1.58 1.48
1.16 1.01 0.93 0.87 0.81 0.79 0.82 0.82 0.80 0.79 0.75 0.71 0.69 0.70 0.76 0.72 0.63 0.56 0.52 0.60 0.68 0.68 0.65 0.65 0.64 0.66 0.72 0.84 0.97 1.17 1.29 1.41 1.34 1.48 1.64 1.59 1.43 1.33 1.24 1.32 1.56 1.61 1.54
0.94 0.83 0.80 0.80 0.74 0.72 0.71 0.72 0.70 0.71 0.71 0.66 0.64 0.67 0.71 0.68 0.54 0.47 0.46 0.54 0.65 0.68 0.70 0.68 0.62 0.57 0.69 0.83 1.08 1.37 1.50 1.57 1.43 1.52 1.78 1.83 1.66 1.62 1.58 1.49 1.63 1.69 1.63
0.80 0.72 0.75 0.75 0.67 0.63 0.65 0.66 0.65 0.62 0.63 0.62 0.61 0.63 0.60 0.51 0.43 0.38 0.39 0.43 0.52 0.62 0.68 0.74 0.73 0.64 0.70 0.90 1.12 1.32 1.46 1.49 1.52 1.59 1.62 1.65 1.73 1.76 1.74 1.67 1.64 1.65 1.63
0.74 0.70 0.74 0.74 0.54 0.47 0.57 0.59 0.58 0.63 0.62 0.60 0.60 0.58 0.50 0.46 0.37 0.33 0.34 0.35 0.37 0.52 0.71 0.74 0.75 0.71 0.75 0.95 1.12 1.37 1.57 1.65 1.63 1.64 1.50 1.41 1.38 1.41 1.48 1.46 1.42 1.39 1.37
0.71 0.72 0.71 0.65 0.54 0.48 0.53 0.55 0.58 0.63 0.60 0.54 0.55 0.54 0.45 0.44 0.39 0.32 0.31 0.32 0.34 0.42 0.59 0.66 0.69 0.71 0.86 1.17 1.34 1.49 1.66 1.76 1.78 1.65 1.45 1.34 1.22 1.14 1.15 1.22 1.25 1.24 1.17
0.75 0.74 0.72 0.66 0.55 0.47 0.49 0.47 0.48 0.51 0.51 0.47 0.48 0.49 0.45 0.44 0.38 0.35 0.37 0.40 0.41 0.45 0.56 0.70 0.80 0.86 1.05 1.36 1.56 1.73 1.77 1.68 1.51 1.44 1.36 1.28 1.15 1.08 1.09 1.05 1.07 1.11 1.12
0.71 0.66 0.63 0.55 0.51 0.50 0.44 0.33 0.31 0.32 0.32 0.36 0.42 0.41 0.38 0.35 0.29 0.31 0.33 0.34 0.38 0.42 0.51 0.70 0.88 1.03 1.23 1.44 1.61 1.66 1.64 1.53 1.41 1.23 1.16 1.20 1.18 1.10 1.06 0.99 0.98 0.99 1.07
0.65 0.62 0.55 0.49 0.47 0.44 0.47 0.37 0.27 0.23 0.22 0.21 0.23 0.24 0.24 0.26 0.26 0.27 0.28 0.30 0.34 0.42 0.53 0.73 0.86 0.96 1.15 1.38 1.52 1.48 1.38 1.30 1.21 1.10 1.05 1.02 1.01 0.97 0.96 0.92 0.87 0.87 0.94
0.53 0.52 0.49 0.45 0.43 0.41 0.43 0.46 0.42 0.29 0.22 0.21 0.21 0.22 0.24 0.25 0.23 0.23 0.26 0.30 0.33 0.42 0.54 0.74 0.85 0.94 1.12 1.27 1.31 1.30 1.27 1.17 1.09 1.06 1.03 0.94 0.87 0.84 0.81 0.79 0.78 0.81 0.79
0.34 0.34 0.35 0.39 0.39 0.38 0.36 0.35 0.36 0.37 0.37 0.33 0.26 0.23 0.21 0.21 0.20 0.20 0.24 0.29 0.34 0.40 0.55 0.73 0.86 0.93 1.01 1.09 1.16 1.21 1.19 1.11 1.02 1.01 1.06 1.01 0.91 0.82 0.75 0.72 0.71 0.67 0.67
0.26 0.29 0.27 0.28 0.31 0.31 0.29 0.29 0.30 0.33 0.35 0.36 0.33 0.28 0.24 0.23 0.25 0.28 0.30 0.34 0.42 0.50 0.59 0.72 0.81 0.88 0.90 0.90 0.96 1.02 1.03 1.03 0.98 0.95 0.95 0.95 0.88 0.79 0.69 0.61 0.57 0.47 0.48
0.19 0.16 0.17 0.19 0.22 0.24 0.22 0.23 0.25 0.27 0.30 0.32 0.33 0.30 0.29 0.35 0.38 0.40 0.37 0.34 0.40 0.50 0.59 0.67 0.75 0.80 0.78 0.76 0.75 0.79 0.84 0.87 0.86 0.83 0.80 0.80 0.78 0.68 0.61 0.54 0.51 0.48 0.48
0.14 0.11 0.12 0.13 0.15 0.16 0.15 0.15 0.18 0.21 0.26 0.30 0.29 0.26 0.33 0.40 0.44 0.44 0.43 0.42 0.45 0.50 0.54 0.57 0.61 0.65 0.63 0.62 0.61 0.64 0.69 0.73 0.74 0.74 0.72 0.68 0.64 0.60 0.53 0.48 0.44 0.41 0.39
0.10 0.09 0.11 0.13 0.13 0.12 0.12 0.13 0.17 0.19 0.21 0.26 0.28 0.29 0.37 0.40 0.45 0.48 0.50 0.51 0.50 0.50 0.48 0.49 0.49 0.50 0.51 0.51 0.50 0.52 0.55 0.58 0.64 0.68 0.70 0.64 0.54 0.49 0.44 0.40 0.40 0.40 0.39
0.10 0.10 0.13 0.14 0.12 0.11 0.12 0.14 0.15 0.16 0.18 0.21 0.24 0.28 0.34 0.42 0.48 0.52 0.54 0.52 0.51 0.49 0.44 0.42 0.44 0.46 0.45 0.42 0.42 0.46 0.50 0.53 0.57 0.66 0.70 0.65 0.53 0.46 0.40 0.38 0.40 0.42 0.39
0.10 0.12 0.14 0.15 0.12 0.11 0.11 0.12 0.14 0.15 0.17 0.20 0.22 0.25 0.30 0.38 0.45 0.52 0.56 0.54 0.52 0.50 0.47 0.44 0.43 0.43 0.40 0.35 0.34 0.33 0.34 0.40 0.48 0.57 0.61 0.61 0.50 0.41 0.35 0.34 0.35 0.36 0.36
0.11 0.11 0.11 0.11 0.12 0.13 0.13 0.13 0.14 0.15 0.15 0.15 0.17 0.19 0.22 0.27 0.33 0.42 0.51 0.55 0.57 0.56 0.52 0.49 0.48 0.46 0.39 0.32 0.26 0.24 0.30 0.38 0.45 0.50 0.53 0.50 0.40 0.34 0.32 0.32 0.32 0.31 0.31
0.09 0.10 0.09 0.08 0.08 0.10 0.12 0.13 0.12 0.13 0.14 0.14 0.14 0.15 0.17 0.20 0.25 0.30 0.38 0.45 0.50 0.55 0.60 0.61 0.57 0.46 0.37 0.31 0.28 0.29 0.30 0.31 0.33 0.37 0.40 0.40 0.33 0.31 0.32 0.32 0.27 0.27 0.29

GEFSGL_prec_meanprecacc_252.txt.gz
Total_Precipitation_Accumulation
1.84 1.90 1.84 1.80 1.77 1.75 1.65 1.51 1.46 1.40 1.28 1.20 1.12 1.09 1.10 1.14 1.12 1.16 1.14 1.11 1.08 1.04 1.02 1.03 1.06 1.12 1.20 1.21 1.23 1.38 1.58 1.73 1.75 1.43 1.28 1.36 1.51 1.48 1.48 1.43 1.33 1.29 1.34
1.55 1.68 1.70 1.62 1.50 1.45 1.38 1.31 1.23 1.17 1.13 1.10 1.00 0.93 0.90 0.89 0.88 0.90 0.92 0.95 0.96 0.91 0.94 0.98 1.00 1.03 1.07 1.14 1.19 1.27 1.42 1.63 1.78 1.69 1.45 1.44 1.51 1.54 1.58 1.56 1.37 1.22 1.27
1.34 1.40 1.44 1.38 1.29 1.22 1.19 1.20 1.12 1.06 1.02 0.95 0.91 0.89 0.82 0.80 0.76 0.75 0.78 0.85 0.89 0.86 0.89 0.94 0.99 1.11 1.11 1.13 1.20 1.23 1.32 1.45 1.72 1.79 1.60 1.56 1.62 1.67 1.78 1.65 1.48 1.45 1.22
1.17 1.21 1.23 1.24 1.21 1.14 1.07 1.05 1.03 1.00 0.97 0.92 0.91 0.84 0.78 0.73 0.72 0.72 0.74 0.78 0.81 0.83 0.88 0.93 0.98 1.11 1.19 1.21 1.21 1.23 1.27 1.40 1.59 1.76 1.71 1.67 1.73 1.81 1.85 1.80 1.66 1.51 1.37
1.14 1.10 1.12 1.19 1.20 1.14 1.12 1.09 1.05 0.97 0.91 0.89 0.89 0.83 0.77 0.71 0.67 0.68 0.69 0.72 0.80 0.83 0.82 0.85 0.89 1.00 1.09 1.07 1.00 1.03 1.18 1.40 1.48 1.66 1.71 1.68 1.68 1.81 1.79 1.60 1.54 1.47 1.32
1.19 1.14 1.13 1.14 1.10 1.07 1.07 1.03 1.01 0.95 0.92 0.89 0.86 0.83 0.77 0.65 0.67 0.67 0.66 0.70 0.76 0.80 0.80 0.80 0.77 0.77 0.75 0.77 0.81 0.87 1.00 1.26 1.58 1.78 1.76 1.70 1.59 1.58 1.63 1.58 1.57 1.58 1.51
1.30 1.20 1.15 1.10 1.01 0.95 0.89 0.88 0.93 0.93 0.87 0.82 0.79 0.79 0.75 0.68 0.66 0.61 0.62 0.67 0.76 0.83 0.85 0.84 0.68 0.58 0.67 0.74 0.79 0.83 0.96 1.12 1.41 1.76 1.86 1.65 1.59 1.56 1.62 1.62 1.67 1.73 1.61
1.25 1.14 1.08 1.02 0.96 0.93 0.92 0.90 0.89 0.88 0.82 0.82 0.82 0.80 0.79 0.68 0.64 0.58 0.59 0.65 0.75 0.77 0.77 0.80 0.81 0.75 0.72 0.79 0.85 0.94 1.06 1.19 1.29 1.39 1.69 1.53 1.32 1.33 1.44 1.50 1.60 1.62 1.52
1.21 1.05 0.95 0.89 0.83 0.81 0.85 0.85 0.83 0.81 0.76 0.72 0.71 0.73 0.80 0.78 0.68 0.61 0.57 0.64 0.72 0.72 0.68 0.68 0.68 0.71 0.77 0.90 1.03 1.22 1.34 1.45 1.36 1.50 1.66 1.61 1.46 1.38 1.29 1.37 1.61 1.66 1.59
0.98 0.85 0.81 0.81 0.75 0.73 0.73 0.74 0.72 0.73 0.72 0.67 0.65 0.68 0.73 0.72 0.58 0.50 0.49 0.57 0.69 0.72 0.74 0.73 0.66 0.61 0.73 0.88 1.13 1.41 1.54 1.59 1.45 1.54 1.80 1.85 1.68 1.67 1.64 1.55 1.68 1.73 1.67
0.81 0.73 0.77 0.76 0.68 0.64 0.66 0.67 0.66 0.63 0.65 0.63 0.62 0.65 0.62 0.52 0.45 0.40 0.41 0.45 0.56 0.67 0.73 0.80 0.78 0.69 0.75 0.95 1.17 1.36 1.50 1.51 1.54 1.63 1.65 1.67 1.75 1.79 1.78 1.72 1.68 1.69 1.67
0.75 0.71 0.75 0.75 0.55 0.47 0.57 0.59 0.60 0.65 0.64 0.62 0.63 0.61 0.52 0.47 0.38 0.35 0.37 0.38 0.41 0.57 0.76 0.79 0.80 0.76 0.79 0.99 1.15 1.40 1.60 1.67 1.64 1.67 1.53 1.44 1.40 1.44 1.52 1.50 1.47 1.44 1.40
0.73 0.73 0.71 0.66 0.55 0.49 0.54 0.56 0.60 0.64 0.62 0.55 0.57 0.56 0.48 0.46 0.41 0.35 0.36 0.38 0.40 0.49 0.65 0.71 0.73 0.75 0.89 1.19 1.36 1.52 1.68 1.78 1.80 1.67 1.48 1.37 1.24 1.17 1.17 1.25 1.29 1.27 1.20
0.76 0.75 0.72 0.66 0.56 0.49 0.51 0.48 0.49 0.52 0.52 0.49 0.50 0.51 0.48 0.47 0.42 0.39 0.42 0.46 0.49 0.52 0.63 0.75 0.84 0.89 1.07 1.37 1.58 1.76 1.79 1.69 1.54 1.47 1.39 1.31 1.16 1.10 1.11 1.06 1.09 1.14 1.15
0.72 0.67 0.64 0.56 0.53 0.52 0.46 0.35 0.33 0.34 0.33 0.37 0.43 0.42 0.40 0.38 0.33 0.36 0.39 0.40 0.45 0.48 0.56 0.74 0.92 1.06 1.25 1.46 1.62 1.68 1.65 1.54 1.43 1.25 1.18 1.22 1.20 1.12 1.08 1.00 0.99 1.01 1.10
0.67 0.63 0.56 0.49 0.48 0.45 0.48 0.38 0.29 0.26 0.24 0.23 0.25 0.25 0.26 0.31 0.31 0.34 0.34 0.35 0.39 0.46 0.56 0.76 0.88 0.98 1.18 1.40 1.53 1.50 1.39 1.31 1.22 1.11 1.06 1.03 1.02 0.99 0.98 0.94 0.89 0.88 0.96
0.54 0.53 0.50 0.45 0.43 0.41 0.44 0.47 0.43 0.30 0.23 0.23 0.24 0.24 0.27 0.30 0.28 0.28 0.30 0.34 0.36 0.44 0.56 0.75 0.87 0.98 1.17 1.30 1.34 1.32 1.28 1.19 1.10 1.07 1.04 0.95 0.89 0.87 0.84 0.81 0.80 0.83 0.80
0.35 0.34 0.36 0.39 0.40 0.40 0.37 0.36 0.36 0.38 0.38 0.35 0.30 0.27 0.24 0.23 0.22 0.23 0.26 0.30 0.36 0.41 0.55 0.74 0.88 0.96 1.05 1.12 1.19 1.24 1.21 1.13 1.04 1.03 1.07 1.02 0.93 0.85 0.77 0.74 0.73 0.69 0.69
0.26 0.29 0.28 0.29 0.33 0.34 0.32 0.32 0.32 0.35 0.37 0.38 0.34 0.29 0.25 0.24 0.25 0.29 0.31 0.35 0.42 0.50 0.60 0.74 0.83 0.90 0.92 0.92 0.98 1.04 1.05 1.04 1.00 0.96 0.95 0.96 0.89 0.80 0.70 0.63 0.59 0.48 0.50
0.19 0.17 0.18 0.21 0.24 0.26 0.25 0.26 0.27 0.28 0.31 0.33 0.33 0.30 0.29 0.35 0.39 0.41 0.39 0.36 0.42 0.51 0.60 0.69 0.77 0.82 0.80 0.77 0.76 0.80 0.85 0.88 0.87 0.83 0.80 0.80 0.78 0.69 0.61 0.55 0.53 0.50 0.49
0.14 0.12 0.13 0.14 0.16 0.16 0.15 0.16 0.19 0.21 0.26 0.31 0.29 0.26 0.34 0.40 0.45 0.46 0.45 0.44 0.47 0.51 0.55 0.58 0.62 0.66 0.65 0.63 0.62 0.65 0.70 0.74 0.75 0.75 0.72 0.69 0.65 0.62 0.54 0.49 0.46 0.42 0.41
0.10 0.10 0.12 0.13 0.13 0.12 0.12 0.14 0.17 0.19 0.22 0.26 0.29 0.30 0.38 0.40 0.46 0.49 0.51 0.51 0.51 0.51 0.49 0.50 0.50 0.51 0.52 0.52 0.51 0.53 0.56 0.59 0.64 0.69 0.70 0.65 0.55 0.51 0.45 0.40 0.41 0.40 0.40
0.10 0.11 0.13 0.14 0.13 0.12 0.13 0.15 0.16 0.17 0.19 0.22 0.24 0.29 0.35 0.43 0.50 0.54 0.54 0.53 0.52 0.50 0.45 0.44 0.45 0.47 0.46 0.43 0.43 0.48 0.52 0.54 0.58 0.66 0.70 0.65 0.54 0.47 0.42 0.40 0.42 0.44 0.42
0.10 0.12 0.15 0.15 0.12 0.12 0.12 0.13 0.15 0.16 0.18 0.21 0.23 0.26 0.31 0.40 0.46 0.53 0.57 0.55 0.53 0.51 0.48 0.45 0.44 0.44 0.41 0.37 0.35 0.34 0.35 0.40 0.48 0.57 0.61 0.61 0.50 0.41 0.36 0.36 0.37 0.38 0.39
0.11 0.11 0.11 0.12 0.13 0.14 0.13 0.13 0.14 0.16 0.16 0.16 0.18 0.20 0.24 0.29 0.35 0.44 0.53 0.56 0.58 0.58 0.53 0.50 0.49 0.47 0.40 0.33 0.27 0.25 0.30 0.38 0.45 0.50 0.53 0.50 0.40 0.35 0.33 0.33 0.33 0.33 0.34
0.09 0.10 0.10 0.09 0.09 0.11 0.13 0.13 0.13 0.14 0.15 0.15 0.15 0.16 0.18 0.22 0.26 0.32 0.39 0.46 0.51 0.57 0.60 0.61 0.58 0.47 0.38 0.32 0.29 0.29 0.31 0.31 0.34 0.37 0.41 0.40 0.33 0.32 0.34 0.33 0.28 0.29 0.31

GEFSGL_prec_meanprecacc_258.txt.gz
Total_Precipitation_Accumulation
1.94 2.00 1.90 1.88 1.85 1.82 1.72 1.58 1.54 1.47 1.36 1.27 1.17 1.12 1.13 1.18 1.17 1.21 1.19 1.15 1.11 1.08 1.06 1.06 1.09 1.14 1.23 1.23 1.26 1.41 1.61 1.77 1.80 1.46 1.31 1.38 1.53 1.50 1.50 1.46 1.36 1.31 1.35
1.60 1.74 1.76 1.68 1.56 1.52 1.45 1.38 1.30 1.24 1.18 1.14 1.02 0.96 0.93 0.93 0.92 0.94 0.96 0.97 0.98 0.94 0.97 1.03 1.03 1.06 1.11 1.18 1.23 1.31 1.46 1.68 1.83 1.72 1.48 1.47 1.53 1.55 1.60 1.59 1.39 1.24 1.28
1.38 1.44 1.48 1.43 1.34 1.28 1.25 1.26 1.17 1.09 1.05 0.99 0.93 0.92 0.85 0.83 0.79 0.78 0.81 0.88 0.90 0.87 0.91 0.97 1.02 1.14 1.14 1.16 1.23 1.27 1.38 1.50 1.77 1.83 1.63 1.58 1.64 1.69 1.81 1.67 1.50 1.48 1.23
1.20 1.24 1.27 1.28 1.25 1.18 1.11 1.09 1.07 1.03 1.01 0.96 0.95 0.87 0.81 0.76 0.75 0.75 0.77 0.81 0.83 0.85 0.90 0.95 0.99 1.13 1.21 1.24 1.24 1.27 1.33 1.46 1.64 1.81 1.75 1.70 1.75 1.83 1.88 1.82 1.69 1.55 1.39
1.17 1.12 1.16 1.22 1.23 1.18 1.16 1.13 1.09 1.01 0.95 0.94 0.93 0.88 0.82 0.75 0.71 0.72 0.72 0.74 0.83 0.85 0.84 0.86 0.91 1.01 1.11 1.10 1.02 1.07 1.23 1.45 1.53 1.71 1.75 1.71 1.71 1.84 1.83 1.63 1.58 1.51 1.35
1.20 1.16 1.17 1.18 1.14 1.12 1.12 1.08 1.06 1.01 0.97 0.93 0.90 0.88 0.82 0.68 0.70 0.69 0.68 0.73 0.79 0.82 0.81 0.82 0.79 0.78 0.77 0.78 0.83 0.90 1.04 1.31 1.63 1.82 1.79 1.73 1.61 1.60 1.67 1.61 1.62 1.63 1.55
1.32 1.21 1.19 1.16 1.07 1.02 0.96 0.95 1.00 0.99 0.93 0.87 0.84 0.84 0.80 0.73 0.68 0.62 0.63 0.71 0.80 0.86 0.88 0.86 0.69 0.59 0.69 0.76 0.81 0.85 0.98 1.17 1.48 1.81 1.90 1.68 1.63 1.60 1.66 1.65 1.71 1.76 1.64
1.27 1.17 1.12 1.10 1.03 1.00 0.99 0.98 0.97 0.94 0.87 0.87 0.87 0.85 0.84 0.72 0.65 0.59 0.61 0.68 0.78 0.81 0.81 0.83 0.84 0.77 0.74 0.81 0.88 0.96 1.09 1.23 1.34 1.45 1.76 1.58 1.38 1.39 1.48 1.54 1.64 1.65 1.55
1.25 1.09 1.00 0.95 0.89 0.88 0.92 0.92 0.89 0.87 0.82 0.77 0.78 0.80 0.86 0.82 0.70 0.62 0.59 0.66 0.74 0.76 0.72 0.71 0.71 0.73 0.79 0.91 1.05 1.26 1.38 1.49 1.41 1.55 1.72 1.67 1.52 1.43 1.33 1.42 1.65 1.69 1.61
1.01 0.89 0.85 0.85 0.79 0.78 0.79 0.79 0.76 0.78 0.77 0.72 0.71 0.76 0.79 0.76 0.61 0.53 0.52 0.59 0.71 0.75 0.76 0.74 0.67 0.63 0.74 0.90 1.15 1.44 1.58 1.64 1.50 1.59 1.85 1.90 1.73 1.70 1.67 1.59 1.72 1.77 1.70
0.84 0.76 0.78 0.78 0.70 0.66 0.69 0.70 0.69 0.66 0.68 0.68 0.67 0.70 0.66 0.55 0.48 0.43 0.43 0.48 0.59 0.69 0.75 0.82 0.79 0.71 0.76 0.97 1.19 1.39 1.55 1.57 1.61 1.69 1.70 1.72 1.79 1.82 1.81 1.75 1.72 1.72 1.70
0.76 0.72 0.76 0.76 0.56 0.48 0.59 0.62 0.62 0.68 0.66 0.66 0.67 0.63 0.53 0.49 0.41 0.39 0.40 0.41 0.44 0.60 0.79 0.82 0.82 0.77 0.81 1.01 1.18 1.44 1.65 1.72 1.70 1.73 1.58 1.48 1.44 1.47 1.54 1.53 1.50 1.47 1.43
0.74 0.74 0.73 0.67 0.56 0.50 0.55 0.58 0.62 0.67 0.64 0.58 0.60 0.58 0.49 0.47 0.43 0.37 0.39 0.42 0.45 0.52 0.69 0.76 0.77 0.78 0.92 1.22 1.39 1.56 1.72 1.83 1.86 1.72 1.52 1.41 1.28 1.21 1.21 1.29 1.33 1.32 1.24
0.78 0.76 0.74 0.68 0.57 0.50 0.53 0.50 0.51 0.54 0.55 0.51 0.53 0.53 0.50 0.48 0.43 0.40 0.44 0.49 0.54 0.57 0.68 0.82 0.91 0.94 1.11 1.41 1.61 1.80 1.84 1.75 1.59 1.53 1.44 1.36 1.22 1.15 1.15 1.10 1.13 1.18 1.19
0.74 0.69 0.65 0.58 0.55 0.53 0.47 0.36 0.35 0.36 0.35 0.39 0.44 0.44 0.42 0.40 0.35 0.39 0.42 0.44 0.50 0.54 0.63 0.82 1.00 1.11 1.30 1.50 1.66 1.72 1.70 1.59 1.48 1.31 1.24 1.29 1.25 1.16 1.11 1.03 1.01 1.03 1.12
0.68 0.65 0.57 0.51 0.49 0.46 0.49 0.40 0.31 0.28 0.26 0.23 0.25 0.26 0.27 0.33 0.34 0.36 0.37 0.40 0.45 0.53 0.62 0.83 0.97 1.05 1.23 1.44 1.57 1.53 1.43 1.35 1.27 1.17 1.12 1.09 1.08 1.04 1.02 0.97 0.91 0.91 0.99
0.57 0.55 0.51 0.47 0.44 0.42 0.45 0.48 0.45 0.32 0.24 0.24 0.25 0.25 0.27 0.31 0.30 0.30 0.33 0.37 0.40 0.48 0.60 0.80 0.94 1.05 1.23 1.35 1.37 1.35 1.31 1.21 1.14 1.11 1.09 1.00 0.94 0.91 0.88 0.85 0.83 0.86 0.83
0.36 0.35 0.37 0.41 0.41 0.40 0.38 0.37 0.38 0.39 0.40 0.36 0.31 0.28 0.25 0.24 0.24 0.24 0.28 0.32 0.37 0.42 0.57 0.77 0.91 1.00 1.09 1.16 1.23 1.27 1.24 1.15 1.06 1.05 1.11 1.06 0.96 0.88 0.80 0.77 0.76 0.71 0.71
0.27 0.30 0.28 0.30 0.34 0.34 0.32 0.33 0.33 0.36 0.38 0.38 0.35 0.30 0.26 0.24 0.26 0.29 0.32 0.36 0.43 0.51 0.61 0.74 0.84 0.92 0.94 0.94 1.00 1.06 1.07 1.06 1.01 0.98 0.98 0.99 0.92 0.82 0.72 0.65 0.61 0.50 0.52
0.20 0.18 0.19 0.21 0.24 0.27 0.25 0.26 0.27 0.29 0.31 0.33 0.34 0.31 0.30 0.35 0.39 0.42 0.40 0.38 0.43 0.52 0.60 0.69 0.77 0.82 0.81 0.78 0.77 0.81 0.86 0.90 0.89 0.86 0.83 0.83 0.80 0.71 0.63 0.58 0.55 0.52 0.52
0.15 0.12 0.13 0.14 0.16 0.17 0.15 0.16 0.19 0.22 0.26 0.31 0.29 0.27 0.34 0.41 0.46 0.46 0.46 0.45 0.47 0.51 0.55 0.59 0.62 0.66 0.66 0.65 0.63 0.66 0.71 0.76 0.76 0.76 0.74 0.71 0.67 0.64 0.56 0.51 0.48 0.44 0.42
0.10 0.10 0.12 0.14 0.13 0.12 0.12 0.14 0.17 0.20 0.22 0.26 0.29 0.30 0.39 0.41 0.46 0.50 0.52 0.52 0.51 0.52 0.50 0.50 0.50 0.51 0.53 0.53 0.52 0.54 0.58 0.61 0.67 0.71 0.72 0.67 0.57 0.53 0.47 0.42 0.43 0.43 0.42
0.10 0.11 0.14 0.15 0.13 0.12 0.13 0.15 0.17 0.18 0.20 0.23 0.25 0.30 0.36 0.44 0.51 0.55 0.56 0.54 0.53 0.51 0.46 0.45 0.47 0.48 0.47 0.45 0.45 0.49 0.53 0.56 0.61 0.69 0.73 0.67 0.56 0.48 0.43 0.41 0.43 0.46 0.44
0.11 0.13 0.15 0.15 0.12 0.12 0.13 0.14 0.16 0.17 0.19 0.22 0.24 0.28 0.33 0.41 0.48 0.55 0.59 0.56 0.55 0.53 0.49 0.47 0.46 0.45 0.42 0.38 0.36 0.35 0.37 0.43 0.52 0.59 0.63 0.62 0.52 0.43 0.38 0.37 0.38 0.39 0.42
0.12 0.11 0.11 0.12 0.13 0.14 0.14 0.14 0.15 0.17 0.17 0.17 0.20 0.22 0.25 0.30 0.37 0.46 0.54 0.58 0.59 0.59 0.55 0.51 0.51 0.48 0.42 0.34 0.28 0.26 0.32 0.39 0.46 0.51 0.55 0.52 0.43 0.38 0.36 0.36 0.35 0.34 0.36
0.10 0.11 0.10 0.09 0.10 0.11 0.13 0.14 0.14 0.15 0.17 0.16 0.16 0.18 0.20 0.23 0.28 0.33 0.40 0.47 0.52 0.57 0.61 0.63 0.61 0.48 0.39 0.32 0.30 0.30 0.32 0.32 0.35 0.39 0.42 0.42 0.35 0.34 0.36 0.35 0.30 0.30 0.32

GEFSGL_prec_meanprecacc_264.txt.gz
Total_Precipitation_Accumulation
1.98 2.05 1.98 1.95 1.90 1.85 1.74 1.59 1.55 1.48 1.38 1.30 1.22 1.16 1.16 1.21 1.21 1.24 1.22 1.17 1.13 1.09 1.07 1.07 1.09 1.15 1.23 1.24 1.27 1.42 1.63 1.81 1.84 1.49 1.35 1.42 1.56 1.53 1.53 1.47 1.37 1.32 1.36
1.64 1.79 1.84 1.74 1.59 1.54 1.46 1.39 1.31 1.24 1.20 1.16 1.05 0.99 0.96 0.96 0.96 0.97 0.99 1.00 1.00 0.96 0.98 1.04 1.04 1.07 1.12 1.19 1.25 1.33 1.48 1.70 1.85 1.73 1.51 1.51 1.57 1.58 1.62 1.60 1.40 1.25 1.30
1.41 1.47 1.51 1.46 1.36 1.30 1.27 1.29 1.19 1.12 1.07 1.01 0.96 0.96 0.88 0.87 0.84 0.82 0.84 0.90 0.92 0.89 0.93 0.99 1.03 1.15 1.15 1.17 1.24 1.29 1.40 1.52 1.80 1.84 1.65 1.61 1.67 1.73 1.83 1.70 1.52 1.49 1.24
1.22 1.26 1.28 1.30 1.27 1.20 1.13 1.12 1.10 1.07 1.05 0.99 0.98 0.91 0.85 0.81 0.80 0.79 0.79 0.83 0.85 0.86 0.91 0.97 1.01 1.14 1.22 1.25 1.26 1.29 1.35 1.50 1.67 1.83 1.78 1.73 1.78 1.87 1.90 1.84 1.71 1.57 1.41
1.18 1.13 1.17 1.24 1.25 1.20 1.19 1.16 1.11 1.04 0.99 0.97 0.96 0.90 0.84 0.78 0.74 0.74 0.74 0.77 0.85 0.87 0.86 0.87 0.91 1.02 1.13 1.12 1.06 1.10 1.26 1.49 1.57 1.74 1.79 1.76 1.76 1.88 1.85 1.65 1.59 1.53 1.37
1.21 1.17 1.18 1.19 1.15 1.14 1.13 1.09 1.08 1.02 0.98 0.96 0.93 0.89 0.83 0.69 0.71 0.72 0.71 0.76 0.81 0.84 0.83 0.83 0.79 0.79 0.79 0.81 0.86 0.93 1.08 1.34 1.66 1.85 1.82 1.76 1.65 1.63 1.69 1.63 1.64 1.64 1.56
1.33 1.22 1.20 1.17 1.08 1.04 0.97 0.96 1.01 1.01 0.95 0.90 0.85 0.85 0.81 0.74 0.69 0.63 0.65 0.73 0.82 0.88 0.90 0.88 0.70 0.61 0.72 0.78 0.83 0.88 1.01 1.19 1.49 1.84 1.92 1.70 1.65 1.62 1.68 1.67 1.72 1.77 1.64
1.28 1.17 1.13 1.10 1.04 1.02 1.01 1.00 0.99 0.96 0.91 0.91 0.88 0.86 0.85 0.74 0.67 0.60 0.62 0.70 0.80 0.83 0.83 0.86 0.86 0.80 0.76 0.84 0.91 0.99 1.12 1.24 1.36 1.47 1.77 1.60 1.40 1.42 1.51 1.56 1.65 1.66 1.56
1.26 1.10 1.00 0.96 0.90 0.90 0.95 0.96 0.92 0.90 0.85 0.80 0.80 0.83 0.88 0.84 0.72 0.64 0.60 0.67 0.76 0.77 0.73 0.73 0.72 0.75 0.81 0.95 1.09 1.29 1.41 1.52 1.43 1.59 1.76 1.70 1.56 1.50 1.38 1.45 1.68 1.72 1.63
1.03 0.91 0.87 0.87 0.81 0.81 0.84 0.84 0.81 0.83 0.83 0.77 0.74 0.78 0.83 0.79 0.64 0.55 0.54 0.60 0.72 0.75 0.77 0.75 0.68 0.64 0.76 0.92 1.18 1.47 1.61 1.67 1.53 1.63 1.90 1.94 1.77 1.77 1.74 1.64 1.76 1.80 1.73
0.86 0.78 0.80 0.80 0.73 0.70 0.74 0.75 0.75 0.73 0.76 0.75 0.72 0.73 0.70 0.60 0.51 0.46 0.46 0.50 0.60 0.70 0.76 0.83 0.80 0.72 0.77 0.98 1.20 1.41 1.57 1.60 1.64 1.73 1.75 1.76 1.83 1.87 1.86 1.79 1.75 1.75 1.72
0.78 0.74 0.78 0.78 0.58 0.51 0.61 0.64 0.66 0.72 0.73 0.74 0.72 0.67 0.57 0.53 0.45 0.42 0.43 0.43 0.46 0.61 0.80 0.83 0.83 0.78 0.82 1.01 1.19 1.44 1.66 1.74 1.72 1.77 1.62 1.52 1.47 1.50 1.57 1.56 1.52 1.49 1.45
0.76 0.76 0.74 0.68 0.58 0.52 0.56 0.59 0.64 0.70 0.67 0.63 0.64 0.62 0.51 0.50 0.46 0.40 0.41 0.45 0.48 0.55 0.71 0.78 0.79 0.80 0.93 1.23 1.40 1.56 1.73 1.85 1.88 1.75 1.56 1.43 1.30 1.24 1.24 1.31 1.35 1.34 1.27
0.80 0.78 0.75 0.69 0.58 0.51 0.54 0.51 0.54 0.58 0.57 0.54 0.56 0.56 0.52 0.50 0.45 0.42 0.46 0.52 0.57 0.59 0.70 0.84 0.92 0.96 1.12 1.42 1.62 1.81 1.85 1.77 1.62 1.56 1.47 1.38 1.23 1.17 1.19 1.14 1.16 1.21 1.22
0.76 0.70 0.67 0.59 0.56 0.54 0.48 0.37 0.36 0.37 0.36 0.41 0.47 0.46 0.44 0.42 0.38 0.42 0.44 0.47 0.53 0.57 0.65 0.84 1.02 1.13 1.31 1.51 1.67 1.73 1.71 1.60 1.50 1.32 1.26 1.31 1.28 1.18 1.16 1.08 1.06 1.08 1.15
0.70 0.66 0.59 0.52 0.50 0.47 0.49 0.40 0.31 0.28 0.26 0.25 0.27 0.27 0.29 0.35 0.36 0.39 0.40 0.43 0.48 0.56 0.64 0.86 1.01 1.09 1.26 1.46 1.59 1.54 1.44 1.36 1.28 1.18 1.14 1.11 1.10 1.06 1.05 1.02 0.95 0.94 1.02
0.58 0.57 0.54 0.48 0.45 0.43 0.46 0.49 0.46 0.33 0.25 0.25 0.26 0.27 0.29 0.32 0.31 0.32 0.35 0.40 0.43 0.51 0.62 0.83 0.97 1.08 1.27 1.39 1.41 1.37 1.32 1.23 1.15 1.13 1.10 1.02 0.96 0.93 0.91 0.88 0.86 0.88 0.85
0.39 0.38 0.39 0.43 0.42 0.41 0.39 0.38 0.39 0.41 0.40 0.37 0.32 0.29 0.25 0.24 0.24 0.25 0.30 0.34 0.40 0.45 0.61 0.80 0.95 1.04 1.13 1.20 1.28 1.32 1.27 1.18 1.09 1.08 1.13 1.08 0.99 0.91 0.84 0.81 0.79 0.74 0.73
0.30 0.33 0.31 0.32 0.35 0.35 0.33 0.34 0.34 0.37 0.39 0.39 0.36 0.30 0.26 0.25 0.27 0.31 0.34 0.38 0.45 0.54 0.64 0.77 0.87 0.95 0.97 0.97 1.04 1.11 1.12 1.10 1.05 1.01 1.01 1.02 0.95 0.86 0.76 0.69 0.65 0.55 0.55
0.22 0.22 0.23 0.24 0.26 0.28 0.26 0.27 0.28 0.29 0.32 0.34 0.34 0.31 0.30 0.36 0.39 0.42 0.41 0.39 0.44 0.53 0.62 0.71 0.79 0.84 0.82 0.80 0.79 0.83 0.88 0.92 0.91 0.88 0.85 0.86 0.83 0.74 0.66 0.61 0.59 0.57 0.56
0.17 0.16 0.18 0.17 0.17 0.18 0.17 0.17 0.20 0.22 0.26 0.31 0.30 0.27 0.34 0.41 0.46 0.47 0.46 0.45 0.48 0.52 0.56 0.59 0.63 0.67 0.67 0.66 0.65 0.67 0.72 0.77 0.78 0.78 0.75 0.73 0.69 0.66 0.58 0.54 0.51 0.48 0.47
0.12 0.12 0.15 0.16 0.15 0.14 0.14 0.15 0.18 0.20 0.22 0.27 0.30 0.30 0.39 0.41 0.47 0.50 0.52 0.52 0.52 0.52 0.50 0.51 0.51 0.52 0.53 0.54 0.53 0.55 0.59 0.62 0.68 0.72 0.73 0.69 0.60 0.56 0.49 0.45 0.46 0.46 0.46
0.12 0.13 0.15 0.17 0.15 0.14 0.14 0.17 0.18 0.19 0.21 0.23 0.26 0.30 0.37 0.45 0.52 0.56 0.56 0.55 0.54 0.51 0.47 0.47 0.49 0.50 0.50 0.47 0.46 0.50 0.54 0.56 0.62 0.70 0.74 0.68 0.58 0.50 0.45 0.42 0.45 0.48 0.47
0.13 0.15 0.17 0.17 0.14 0.13 0.14 0.15 0.17 0.19 0.21 0.23 0.25 0.28 0.34 0.43 0.49 0.55 0.59 0.57 0.56 0.54 0.50 0.48 0.47 0.47 0.44 0.40 0.37 0.36 0.38 0.44 0.52 0.60 0.64 0.64 0.53 0.45 0.39 0.39 0.40 0.41 0.43
0.14 0.15 0.14 0.14 0.14 0.15 0.15 0.15 0.16 0.18 0.19 0.19 0.20 0.23 0.26 0.31 0.38 0.47 0.55 0.59 0.61 0.60 0.56 0.52 0.51 0.48 0.42 0.34 0.29 0.26 0.33 0.41 0.47 0.52 0.56 0.53 0.44 0.39 0.37 0.37 0.37 0.36 0.37
0.13 0.14 0.13 0.11 0.11 0.12 0.14 0.16 0.15 0.17 0.18 0.17 0.17 0.18 0.21 0.24 0.30 0.35 0.43 0.49 0.54 0.59 0.62 0.64 0.61 0.49 0.40 0.33 0.30 0.30 0.32 0.33 0.35 0.39 0.43 0.42 0.36 0.35 0.37 0.36 0.31 0.31 0.34